| time (UTC) | temp F | wind direction | speed knots | gust knots | rain 1hr in | rain 24hr in | rain mn in | humidity % | barometer mb |
| 20260506024445 | 68 | 223 | 0.9 | 4.3 | 0.00 | 0.00 | 0.00 | 29 | 914.4 |
| 20260506024338 | 68 | 217 | 0.9 | 4.3 | 0.00 | 0.00 | 0.00 | 29 | 914.5 |
| 20260506024234 | 68 | 217 | 1.7 | 4.3 | 0.00 | 0.00 | 0.00 | 29 | 914.5 |
| 20260506024130 | 68 | 212 | 1.7 | 4.3 | 0.00 | 0.00 | 0.00 | 29 | 914.4 |
| 20260506024024 | 68 | 212 | 1.7 | 4.3 | 0.00 | 0.00 | 0.00 | 29 | 914.4 |
| 20260506023923 | 69 | 203 | 1.7 | 4.3 | 0.00 | 0.00 | 0.00 | 29 | 914.4 |
| 20260506023815 | 69 | 219 | 1.7 | 4.3 | 0.00 | 0.00 | 0.00 | 29 | 914.4 |
| 20260506023451 | 69 | 207 | 1.7 | 4.3 | 0.00 | 0.00 | 0.00 | 28 | 914.3 |
| 20260506023345 | 69 | 212 | 0.9 | 3.5 | 0.00 | 0.00 | 0.00 | 28 | 914.3 |
| 20260506023238 | 69 | 222 | 0.9 | 3.5 | 0.00 | 0.00 | 0.00 | 28 | 914.3 |
| 20260506023133 | 69 | 211 | 0.9 | 3.5 | 0.00 | 0.00 | 0.00 | 29 | 914.3 |
| 20260506023027 | 69 | 231 | 0.9 | 3.5 | 0.00 | 0.00 | 0.00 | 29 | 914.3 |
| 20260506022922 | 69 | 207 | 0.9 | 3.5 | 0.00 | 0.00 | 0.00 | 28 | 914.3 |
| 20260506022817 | 69 | 208 | 0.9 | 3.5 | 0.00 | 0.00 | 0.00 | 28 | 914.2 |
| 20260506022714 | 69 | 200 | 0.9 | 3.5 | 0.00 | 0.00 | 0.00 | 28 | 914.2 |
| 20260506022609 | 69 | 192 | 0.9 | 3.5 | 0.00 | 0.00 | 0.00 | 28 | 914.2 |
| 20260506022503 | 69 | 205 | 0.9 | 3.5 | 0.00 | 0.00 | 0.00 | 28 | 914.2 |
| 20260506022359 | 69 | 197 | 0.9 | 3.5 | 0.00 | 0.00 | 0.00 | 28 | 914.2 |
| 20260506022252 | 69 | 185 | 0.9 | 3.5 | 0.00 | 0.00 | 0.00 | 28 | 914.2 |
| 20260506022144 | 69 | 186 | 0.9 | 3.5 | 0.00 | 0.00 | 0.00 | 28 | 914.1 |
| 20260506022040 | 69 | 201 | 0.9 | 3.5 | 0.00 | 0.00 | 0.00 | 28 | 914.1 |
| 20260506021937 | 70 | 173 | 0.9 | 3.5 | 0.00 | 0.00 | 0.00 | 28 | 914.1 |
| 20260506021613 | 70 | 204 | 0.9 | 3.5 | 0.00 | 0.00 | 0.00 | 28 | 914.1 |
| 20260506021245 | 70 | 205 | 1.7 | 6.1 | 0.00 | 0.00 | 0.00 | 28 | 914.1 |
| 20260506020921 | 70 | 214 | 1.7 | 6.1 | 0.00 | 0.00 | 0.00 | 28 | 914.0 |
| 20260506020555 | 70 | 207 | 2.6 | 6.1 | 0.00 | 0.00 | 0.00 | 28 | 914.0 |
| 20260506020449 | 70 | 196 | 2.6 | 6.1 | 0.00 | 0.00 | 0.00 | 28 | 914.0 |
| 20260506020347 | 70 | 212 | 3.5 | 6.1 | 0.00 | 0.00 | 0.00 | 27 | 914.0 |
| 20260506015540 | 71 | 213 | 2.6 | 6.1 | 0.00 | 0.00 | 0.00 | 27 | 913.8 |
| 20260506015219 | 72 | 216 | 1.7 | 5.2 | 0.00 | 0.00 | 0.00 | 27 | 913.8 |
| 20260506015117 | 72 | 223 | 1.7 | 5.2 | 0.00 | 0.00 | 0.00 | 27 | 913.8 |
| 20260506015015 | 72 | 176 | 2.6 | 5.2 | 0.00 | 0.00 | 0.00 | 27 | 913.8 |
| 20260506014912 | 72 | 202 | 2.6 | 5.2 | 0.00 | 0.00 | 0.00 | 27 | 913.8 |
| 20260506014804 | 72 | 217 | 2.6 | 5.2 | 0.00 | 0.00 | 0.00 | 26 | 913.8 |
| 20260506014657 | 72 | 194 | 2.6 | 5.2 | 0.00 | 0.00 | 0.00 | 26 | 913.8 |
| 20260506014552 | 72 | 213 | 2.6 | 5.2 | 0.00 | 0.00 | 0.00 | 26 | 913.8 |
| 20260506014445 | 72 | 204 | 2.6 | 5.2 | 0.00 | 0.00 | 0.00 | 27 | 913.8 |
| 20260506014341 | 72 | 200 | 2.6 | 5.2 | 0.00 | 0.00 | 0.00 | 26 | 913.8 |
| 20260506014239 | 72 | 195 | 2.6 | 5.2 | 0.00 | 0.00 | 0.00 | 26 | 913.8 |
| 20260506014133 | 72 | 217 | 2.6 | 5.2 | 0.00 | 0.00 | 0.00 | 26 | 913.7 |
| 20260506014027 | 72 | 207 | 2.6 | 5.2 | 0.00 | 0.00 | 0.00 | 26 | 913.8 |
| 20260506013920 | 72 | 212 | 1.7 | 5.2 | 0.00 | 0.00 | 0.00 | 26 | 913.7 |
| 20260506013811 | 72 | 234 | 1.7 | 6.1 | 0.00 | 0.00 | 0.00 | 27 | 913.8 |
| 20260506013444 | 72 | 187 | 1.7 | 6.1 | 0.00 | 0.00 | 0.00 | 27 | 913.7 |
| 20260506013340 | 72 | 224 | 1.7 | 6.1 | 0.00 | 0.00 | 0.00 | 27 | 913.7 |
| 20260506013236 | 72 | 171 | 1.7 | 6.1 | 0.00 | 0.00 | 0.00 | 27 | 913.7 |
| 20260506013129 | 73 | 194 | 1.7 | 6.1 | 0.00 | 0.00 | 0.00 | 26 | 913.7 |
| 20260506013028 | 73 | 212 | 1.7 | 6.1 | 0.00 | 0.00 | 0.00 | 26 | 913.7 |
| 20260506012707 | 73 | 184 | 1.7 | 6.1 | 0.00 | 0.00 | 0.00 | 26 | 913.6 |
| 20260506012600 | 73 | 216 | 1.7 | 6.1 | 0.00 | 0.00 | 0.00 | 27 | 913.7 |
| 20260506012454 | 73 | 196 | 1.7 | 6.1 | 0.00 | 0.00 | 0.00 | 27 | 913.7 |
| 20260506012351 | 73 | 221 | 1.7 | 6.1 | 0.00 | 0.00 | 0.00 | 26 | 913.6 |
| 20260506012027 | 73 | 229 | 1.7 | 6.1 | 0.00 | 0.00 | 0.00 | 26 | 913.7 |
| 20260506011922 | 73 | 232 | 1.7 | 6.1 | 0.00 | 0.00 | 0.00 | 26 | 913.6 |
| 20260506011818 | 73 | 250 | 1.7 | 5.2 | 0.00 | 0.00 | 0.00 | 27 | 913.7 |
| 20260506011715 | 73 | 193 | 1.7 | 5.2 | 0.00 | 0.00 | 0.00 | 26 | 913.6 |
| 20260506011611 | 73 | 219 | 1.7 | 5.2 | 0.00 | 0.00 | 0.00 | 27 | 913.6 |
| 20260506011506 | 73 | 213 | 1.7 | 5.2 | 0.00 | 0.00 | 0.00 | 27 | 913.6 |
| 20260506011358 | 73 | 204 | 1.7 | 5.2 | 0.00 | 0.00 | 0.00 | 26 | 913.7 |
| 20260506011253 | 73 | 213 | 2.6 | 5.2 | 0.00 | 0.00 | 0.00 | 27 | 913.7 |
| 20260506011146 | 73 | 202 | 2.6 | 5.2 | 0.00 | 0.00 | 0.00 | 26 | 913.7 |
| 20260506011041 | 73 | 201 | 2.6 | 7.0 | 0.00 | 0.00 | 0.00 | 26 | 913.8 |
| 20260506010933 | 73 | 219 | 1.7 | 7.0 | 0.00 | 0.00 | 0.00 | 26 | 913.7 |
| 20260506010827 | 73 | 200 | 1.7 | 7.0 | 0.00 | 0.00 | 0.00 | 27 | 913.8 |
| 20260506010721 | 73 | 227 | 1.7 | 7.0 | 0.00 | 0.00 | 0.00 | 26 | 913.7 |
| 20260506010615 | 73 | 227 | 1.7 | 7.0 | 0.00 | 0.00 | 0.00 | 27 | 913.7 |
| 20260506010506 | 73 | 190 | 1.7 | 7.0 | 0.00 | 0.00 | 0.00 | 26 | 913.8 |
| 20260506010401 | 73 | 167 | 1.7 | 7.0 | 0.00 | 0.00 | 0.00 | 26 | 913.7 |
| 20260506010254 | 73 | 179 | 1.7 | 7.0 | 0.00 | 0.00 | 0.00 | 26 | 913.7 |
| 20260506010152 | 73 | 196 | 2.6 | 7.0 | 0.00 | 0.00 | 0.00 | 26 | 913.7 |
| 20260506010047 | 73 | 169 | 2.6 | 7.0 | 0.00 | 0.00 | 0.00 | 26 | 913.7 |
| 20260506005940 | 73 | 182 | 2.6 | 7.0 | 0.00 | 0.00 | 0.00 | 26 | 913.7 |
| 20260506005835 | 73 | 169 | 2.6 | 7.0 | 0.00 | 0.00 | 0.00 | 26 | 913.7 |
| 20260506005727 | 73 | 176 | 2.6 | 7.0 | 0.00 | 0.00 | 0.00 | 26 | 913.7 |
| 20260506005622 | 73 | 190 | 2.6 | 7.0 | 0.00 | 0.00 | 0.00 | 26 | 913.7 |
| 20260506005514 | 73 | 201 | 2.6 | 7.0 | 0.00 | 0.00 | 0.00 | 26 | 913.7 |
| 20260506005408 | 73 | 218 | 2.6 | 7.0 | 0.00 | 0.00 | 0.00 | 26 | 913.7 |
| 20260506005040 | 73 | 188 | 0.9 | 5.2 | 0.00 | 0.00 | 0.00 | 26 | 913.7 |
| 20260506004938 | 73 | 211 | 0.9 | 5.2 | 0.00 | 0.00 | 0.00 | 26 | 913.8 |
| 20260506004836 | 73 | 198 | 0.9 | 5.2 | 0.00 | 0.00 | 0.00 | 26 | 913.7 |
| 20260506004730 | 73 | 165 | 0.9 | 5.2 | 0.00 | 0.00 | 0.00 | 27 | 913.7 |
| 20260506004627 | 73 | 180 | 0.9 | 5.2 | 0.00 | 0.00 | 0.00 | 27 | 913.7 |
| 20260506004524 | 73 | 165 | 0.9 | 5.2 | 0.00 | 0.00 | 0.00 | 26 | 913.7 |
| 20260506003939 | 73 | 206 | 1.7 | 5.2 | 0.00 | 0.00 | 0.00 | 26 | 913.7 |
| 20260506003837 | 73 | 182 | 1.7 | 5.2 | 0.00 | 0.00 | 0.00 | 26 | 913.7 |
| 20260506003730 | 73 | 153 | 1.7 | 5.2 | 0.00 | 0.00 | 0.00 | 26 | 913.6 |
| 20260506003404 | 74 | 205 | 1.7 | 5.2 | 0.00 | 0.00 | 0.00 | 26 | 913.7 |
| 20260506003300 | 74 | 186 | 1.7 | 5.2 | 0.00 | 0.00 | 0.00 | 26 | 913.6 |
| 20260506003155 | 74 | 165 | 1.7 | 5.2 | 0.00 | 0.00 | 0.00 | 26 | 913.6 |
| 20260506003053 | 74 | 160 | 1.7 | 5.2 | 0.00 | 0.00 | 0.00 | 26 | 913.6 |
| 20260506002726 | 74 | 279 | 1.7 | 7.0 | 0.00 | 0.00 | 0.00 | 26 | 913.6 |
| 20260506002619 | 73 | 223 | 2.6 | 7.0 | 0.00 | 0.00 | 0.00 | 26 | 913.6 |
| 20260506002512 | 73 | 240 | 2.6 | 7.0 | 0.00 | 0.00 | 0.00 | 26 | 913.5 |
| 20260506002409 | 73 | 215 | 2.6 | 7.0 | 0.00 | 0.00 | 0.00 | 26 | 913.5 |
| 20260506002306 | 73 | 200 | 2.6 | 7.0 | 0.00 | 0.00 | 0.00 | 26 | 913.5 |
| 20260506002203 | 74 | 165 | 2.6 | 7.0 | 0.00 | 0.00 | 0.00 | 26 | 913.5 |
| 20260506001842 | 74 | 155 | 2.6 | 10.4 | 0.00 | 0.00 | 0.00 | 26 | 913.5 |
| 20260506001518 | 74 | 174 | 2.6 | 10.4 | 0.00 | 0.00 | 0.00 | 26 | 913.4 |
| 20260506001149 | 74 | 118 | 3.5 | 10.4 | 0.00 | 0.00 | 0.00 | 25 | 913.4 |
| 20260506001045 | 74 | 144 | 4.3 | 10.4 | 0.00 | 0.00 | 0.00 | 26 | 913.4 |
| 20260506000939 | 74 | 180 | 4.3 | 10.4 | 0.00 | 0.00 | 0.00 | 26 | 913.4 |
| 20260506000616 | 74 | 216 | 5.2 | 10.4 | 0.00 | 0.00 | 0.00 | 26 | 913.5 |
| 20260506000510 | 74 | 219 | 5.2 | 10.4 | 0.00 | 0.00 | 0.00 | 26 | 913.5 |
| 20260506000404 | 74 | 211 | 5.2 | 10.4 | 0.00 | 0.00 | 0.00 | 26 | 913.5 |
| 20260506000302 | 74 | 232 | 4.3 | 10.4 | 0.00 | 0.00 | 0.00 | 26 | 913.5 |
| 20260506000156 | 74 | 240 | 4.3 | 10.4 | 0.00 | 0.00 | 0.00 | 26 | 913.5 |
| 20260506000048 | 74 | 217 | 3.5 | 10.4 | 0.00 | 0.00 | 0.00 | 26 | 913.4 |
| 20260505235944 | 74 | 222 | 2.6 | 10.4 | 0.00 | 0.00 | 0.00 | 26 | 913.5 |
| 20260505235842 | 74 | 202 | 2.6 | 9.6 | 0.00 | 0.00 | 0.00 | 26 | 913.5 |
| 20260505235736 | 74 | 200 | 2.6 | 9.6 | 0.00 | 0.00 | 0.00 | 26 | 913.4 |
| 20260505235632 | 74 | 221 | 2.6 | 9.6 | 0.00 | 0.00 | 0.00 | 26 | 913.5 |
| 20260505235525 | 74 | 222 | 2.6 | 9.6 | 0.00 | 0.00 | 0.00 | 26 | 913.4 |
| 20260505235203 | 74 | 205 | 3.5 | 9.6 | 0.00 | 0.00 | 0.00 | 26 | 913.4 |
| 20260505235100 | 74 | 202 | 3.5 | 9.6 | 0.00 | 0.00 | 0.00 | 26 | 913.4 |
| 20260505234953 | 74 | 216 | 3.5 | 9.6 | 0.00 | 0.00 | 0.00 | 26 | 913.4 |
| 20260505234848 | 74 | 227 | 3.5 | 9.6 | 0.00 | 0.00 | 0.00 | 26 | 913.4 |
| 20260505234742 | 74 | 180 | 3.5 | 9.6 | 0.00 | 0.00 | 0.00 | 26 | 913.5 |
| 20260505234636 | 74 | 198 | 3.5 | 9.6 | 0.00 | 0.00 | 0.00 | 26 | 913.4 |
| 20260505234532 | 74 | 241 | 2.6 | 9.6 | 0.00 | 0.00 | 0.00 | 26 | 913.4 |
| 20260505234428 | 74 | 214 | 2.6 | 9.6 | 0.00 | 0.00 | 0.00 | 26 | 913.4 |
| 20260505234324 | 74 | 221 | 2.6 | 9.6 | 0.00 | 0.00 | 0.00 | 26 | 913.4 |
| 20260505234000 | 74 | 203 | 3.5 | 7.0 | 0.00 | 0.00 | 0.00 | 26 | 913.4 |
| 20260505233853 | 74 | 150 | 3.5 | 7.0 | 0.00 | 0.00 | 0.00 | 26 | 913.4 |
| 20260505233749 | 74 | 187 | 3.5 | 7.0 | 0.00 | 0.00 | 0.00 | 26 | 913.4 |
| 20260505233646 | 74 | 200 | 2.6 | 7.0 | 0.00 | 0.00 | 0.00 | 26 | 913.4 |
| 20260505233544 | 74 | 192 | 2.6 | 7.0 | 0.00 | 0.00 | 0.00 | 26 | 913.3 |
| 20260505233437 | 74 | 236 | 2.6 | 7.0 | 0.00 | 0.00 | 0.00 | 26 | 913.4 |
| 20260505233113 | 74 | 207 | 1.7 | 9.6 | 0.00 | 0.00 | 0.00 | 26 | 913.3 |
| 20260505232749 | 74 | 273 | 1.7 | 9.6 | 0.00 | 0.00 | 0.00 | 26 | 913.3 |
| 20260505232643 | 74 | 27 | 1.7 | 9.6 | 0.00 | 0.00 | 0.00 | 25 | 913.3 |
| 20260505232538 | 74 | 0 | 2.6 | 9.6 | 0.00 | 0.00 | 0.00 | 25 | 913.4 |
| 20260505232213 | 74 | 240 | 2.6 | 9.6 | 0.00 | 0.00 | 0.00 | 26 | 913.3 |
| 20260505231847 | 74 | 243 | 2.6 | 9.6 | 0.00 | 0.00 | 0.00 | 26 | 913.3 |
| 20260505231521 | 74 | 232 | 1.7 | 9.6 | 0.00 | 0.00 | 0.00 | 26 | 913.4 |
| 20260505231415 | 74 | 309 | 0.9 | 9.6 | 0.00 | 0.00 | 0.00 | 27 | 913.4 |
| 20260505231311 | 74 | 258 | 1.7 | 9.6 | 0.00 | 0.00 | 0.00 | 27 | 913.5 |
| 20260505231204 | 73 | 243 | 1.7 | 9.6 | 0.00 | 0.00 | 0.00 | 27 | 913.5 |
| 20260505231058 | 73 | 213 | 1.7 | 7.8 | 0.00 | 0.00 | 0.00 | 27 | 913.5 |
| 20260505230951 | 73 | 189 | 1.7 | 7.8 | 0.00 | 0.00 | 0.00 | 27 | 913.4 |
| 20260505230845 | 73 | 184 | 1.7 | 7.8 | 0.00 | 0.00 | 0.00 | 27 | 913.5 |
| 20260505230738 | 73 | 184 | 1.7 | 7.8 | 0.00 | 0.00 | 0.00 | 27 | 913.5 |
| 20260505230634 | 73 | 221 | 1.7 | 7.8 | 0.00 | 0.00 | 0.00 | 27 | 913.6 |
| 20260505230527 | 73 | 143 | 1.7 | 7.8 | 0.00 | 0.00 | 0.00 | 27 | 913.6 |
| 20260505230425 | 73 | 183 | 1.7 | 7.8 | 0.00 | 0.00 | 0.00 | 27 | 913.6 |
| 20260505230320 | 73 | 241 | 1.7 | 7.8 | 0.00 | 0.00 | 0.00 | 27 | 913.6 |
| 20260505230214 | 73 | 223 | 1.7 | 7.8 | 0.00 | 0.00 | 0.00 | 27 | 913.6 |
| 20260505230107 | 73 | 169 | 1.7 | 7.8 | 0.00 | 0.00 | 0.00 | 28 | 913.7 |
| 20260505230004 | 73 | 144 | 1.7 | 7.8 | 0.00 | 0.00 | 0.00 | 27 | 913.7 |
| 20260505225638 | 73 | 156 | 2.6 | 7.8 | 0.00 | 0.00 | 0.00 | 27 | 913.7 |
| 20260505225531 | 73 | 171 | 2.6 | 7.8 | 0.00 | 0.00 | 0.00 | 27 | 913.7 |
| 20260505225424 | 73 | 187 | 1.7 | 7.0 | 0.00 | 0.00 | 0.00 | 27 | 913.7 |
| 20260505225319 | 73 | 163 | 1.7 | 7.0 | 0.00 | 0.00 | 0.00 | 27 | 913.7 |
| 20260505225216 | 73 | 193 | 1.7 | 7.0 | 0.00 | 0.00 | 0.00 | 28 | 913.7 |
| 20260505225109 | 73 | 152 | 1.7 | 7.0 | 0.00 | 0.00 | 0.00 | 27 | 913.7 |
| 20260505225006 | 73 | 190 | 1.7 | 7.0 | 0.00 | 0.00 | 0.00 | 27 | 913.7 |
| 20260505224904 | 73 | 161 | 1.7 | 7.0 | 0.00 | 0.00 | 0.00 | 27 | 913.7 |
| 20260505224758 | 73 | 222 | 0.9 | 7.0 | 0.00 | 0.00 | 0.00 | 27 | 913.7 |
| 20260505224651 | 72 | 159 | 0.9 | 7.0 | 0.00 | 0.00 | 0.00 | 28 | 913.7 |
| 20260505224544 | 72 | 159 | 1.7 | 7.0 | 0.00 | 0.00 | 0.00 | 28 | 913.7 |
| 20260505224442 | 72 | 194 | 1.7 | 7.0 | 0.00 | 0.00 | 0.00 | 27 | 913.7 |
| 20260505223858 | 72 | 168 | 1.7 | 7.0 | 0.00 | 0.00 | 0.00 | 28 | 913.8 |
| 20260505223530 | 72 | 9 | 1.7 | 7.0 | 0.00 | 0.00 | 0.00 | 27 | 913.8 |
| 20260505222945 | 73 | 13 | 0.9 | 3.5 | 0.00 | 0.00 | 0.00 | 27 | 913.9 |
| 20260505222616 | 73 | 46 | 0.9 | 3.5 | 0.00 | 0.00 | 0.00 | 27 | 914.0 |
| 20260505222509 | 73 | 159 | 0.9 | 3.5 | 0.00 | 0.00 | 0.00 | 27 | 914.0 |
| 20260505222404 | 73 | 140 | 0.9 | 3.5 | 0.00 | 0.00 | 0.00 | 27 | 914.0 |
| 20260505222258 | 73 | 170 | 0.9 | 3.5 | 0.00 | 0.00 | 0.00 | 27 | 914.0 |
| 20260505222153 | 72 | 89 | 0.9 | 4.3 | 0.00 | 0.00 | 0.00 | 27 | 914.0 |
| 20260505222046 | 72 | 170 | 0.9 | 4.3 | 0.00 | 0.00 | 0.00 | 28 | 914.0 |
| 20260505221944 | 72 | 130 | 0.9 | 4.3 | 0.00 | 0.00 | 0.00 | 27 | 914.0 |
| 20260505221841 | 72 | 150 | 0.9 | 4.3 | 0.00 | 0.00 | 0.00 | 27 | 914.0 |
| 20260505221520 | 73 | 137 | 0.9 | 4.3 | 0.00 | 0.00 | 0.00 | 27 | 914.1 |
| 20260505221419 | 73 | 138 | 0.9 | 4.3 | 0.00 | 0.00 | 0.00 | 27 | 914.0 |
| 20260505221312 | 73 | 200 | 0.0 | 4.3 | 0.00 | 0.00 | 0.00 | 27 | 914.0 |
| 20260505221207 | 73 | 169 | 0.9 | 4.3 | 0.00 | 0.00 | 0.00 | 27 | 914.0 |
| 20260505220840 | 73 | 124 | 0.9 | 5.2 | 0.00 | 0.00 | 0.00 | 27 | 914.1 |
| 20260505220733 | 73 | 81 | 0.9 | 5.2 | 0.00 | 0.00 | 0.00 | 26 | 914.1 |
| 20260505220627 | 73 | 119 | 0.9 | 5.2 | 0.00 | 0.00 | 0.00 | 27 | 914.1 |
| 20260505220524 | 73 | 121 | 0.9 | 5.2 | 0.00 | 0.00 | 0.00 | 27 | 914.2 |
| 20260505220419 | 74 | 132 | 0.9 | 5.2 | 0.00 | 0.00 | 0.00 | 26 | 914.1 |
| 20260505220313 | 74 | 135 | 0.9 | 5.2 | 0.00 | 0.00 | 0.00 | 26 | 914.2 |
| 20260505220207 | 74 | 148 | 0.9 | 5.2 | 0.00 | 0.00 | 0.00 | 27 | 914.2 |
| 20260505220104 | 74 | 278 | 0.9 | 5.2 | 0.00 | 0.00 | 0.00 | 27 | 914.2 |
| 20260505220001 | 73 | 168 | 0.9 | 5.2 | 0.00 | 0.00 | 0.00 | 27 | 914.2 |
| 20260505215859 | 73 | 158 | 0.9 | 5.2 | 0.00 | 0.00 | 0.00 | 27 | 914.2 |
| 20260505215752 | 73 | 169 | 0.9 | 5.2 | 0.00 | 0.00 | 0.00 | 27 | 914.2 |
| 20260505215647 | 73 | 134 | 0.9 | 5.2 | 0.00 | 0.00 | 0.00 | 27 | 914.3 |
| 20260505215539 | 73 | 157 | 0.9 | 5.2 | 0.00 | 0.00 | 0.00 | 27 | 914.3 |
| 20260505215435 | 73 | 139 | 0.9 | 5.2 | 0.00 | 0.00 | 0.00 | 27 | 914.3 |
| 20260505215331 | 73 | 158 | 0.0 | 5.2 | 0.00 | 0.00 | 0.00 | 27 | 914.3 |
| 20260505215225 | 73 | 163 | 0.0 | 5.2 | 0.00 | 0.00 | 0.00 | 28 | 914.4 |
| 20260505215120 | 73 | 159 | 0.0 | 1.7 | 0.00 | 0.00 | 0.00 | 27 | 914.4 |
| 20260505215015 | 73 | 146 | 0.0 | 7.0 | 0.00 | 0.00 | 0.00 | 28 | 914.3 |
| 20260505214908 | 73 | 96 | 0.0 | 7.0 | 0.00 | 0.00 | 0.00 | 27 | 914.4 |
| 20260505214804 | 73 | 270 | 0.0 | 7.0 | 0.00 | 0.00 | 0.00 | 28 | 914.4 |
| 20260505214659 | 73 | 246 | 0.9 | 7.0 | 0.00 | 0.00 | 0.00 | 28 | 914.4 |
| 20260505214336 | 72 | 179 | 0.9 | 7.0 | 0.00 | 0.00 | 0.00 | 27 | 914.4 |
| 20260505214232 | 72 | 54 | 0.9 | 7.0 | 0.00 | 0.00 | 0.00 | 27 | 914.4 |
| 20260505214125 | 72 | 334 | 0.9 | 7.0 | 0.00 | 0.00 | 0.00 | 27 | 914.4 |
| 20260505213801 | 72 | 278 | 1.7 | 7.0 | 0.00 | 0.00 | 0.00 | 28 | 914.5 |
| 20260505213658 | 72 | 315 | 0.9 | 7.0 | 0.00 | 0.00 | 0.00 | 28 | 914.5 |
| 20260505213550 | 72 | 355 | 0.9 | 7.0 | 0.00 | 0.00 | 0.00 | 28 | 914.6 |
| 20260505213004 | 73 | 170 | 0.0 | 7.0 | 0.00 | 0.00 | 0.00 | 27 | 914.5 |
| 20260505212903 | 73 | 159 | 0.0 | 7.0 | 0.00 | 0.00 | 0.00 | 27 | 914.6 |
| 20260505212755 | 73 | 147 | 0.0 | 7.0 | 0.00 | 0.00 | 0.00 | 27 | 914.6 |
| 20260505212650 | 73 | 192 | 0.0 | 7.0 | 0.00 | 0.00 | 0.00 | 27 | 914.6 |
| 20260505212548 | 73 | 204 | 0.9 | 7.0 | 0.00 | 0.00 | 0.00 | 28 | 914.6 |
| 20260505212441 | 73 | 205 | 0.9 | 7.0 | 0.00 | 0.00 | 0.00 | 28 | 914.6 |
| 20260505212337 | 73 | 209 | 0.9 | 7.0 | 0.00 | 0.00 | 0.00 | 27 | 914.7 |
| 20260505212235 | 73 | 245 | 1.7 | 7.0 | 0.00 | 0.00 | 0.00 | 28 | 914.7 |
| 20260505212130 | 73 | 217 | 1.7 | 7.0 | 0.00 | 0.00 | 0.00 | 28 | 914.7 |
| 20260505212027 | 73 | 279 | 1.7 | 7.0 | 0.00 | 0.00 | 0.00 | 28 | 914.7 |
| 20260505211923 | 73 | 203 | 1.7 | 7.0 | 0.00 | 0.00 | 0.00 | 28 | 914.7 |
| 20260505211819 | 72 | 214 | 1.7 | 7.0 | 0.00 | 0.00 | 0.00 | 28 | 914.7 |
| 20260505211455 | 72 | 265 | 1.7 | 7.0 | 0.00 | 0.00 | 0.00 | 28 | 914.7 |
| 20260505211348 | 72 | 234 | 1.7 | 7.0 | 0.00 | 0.00 | 0.00 | 28 | 914.7 |
| 20260505211242 | 72 | 225 | 1.7 | 6.1 | 0.00 | 0.00 | 0.00 | 28 | 914.7 |
| 20260505211136 | 72 | 255 | 1.7 | 6.1 | 0.00 | 0.00 | 0.00 | 28 | 914.7 |
| 20260505211031 | 72 | 232 | 0.9 | 6.1 | 0.00 | 0.00 | 0.00 | 28 | 914.8 |
| 20260505210925 | 72 | 178 | 1.7 | 6.1 | 0.00 | 0.00 | 0.00 | 28 | 914.7 |
| 20260505210556 | 72 | 150 | 1.7 | 5.2 | 0.00 | 0.00 | 0.00 | 28 | 914.7 |
| 20260505210453 | 71 | 196 | 1.7 | 5.2 | 0.00 | 0.00 | 0.00 | 28 | 914.7 |
| 20260505210348 | 71 | 175 | 2.6 | 10.4 | 0.00 | 0.00 | 0.00 | 28 | 914.7 |
| 20260505210026 | 71 | 158 | 3.5 | 10.4 | 0.00 | 0.00 | 0.00 | 29 | 914.7 |
| 20260505205658 | 71 | 198 | 3.5 | 10.4 | 0.00 | 0.00 | 0.00 | 29 | 914.8 |
| 20260505205554 | 71 | 214 | 3.5 | 10.4 | 0.00 | 0.00 | 0.00 | 29 | 914.8 |
| 20260505205447 | 71 | 208 | 3.5 | 10.4 | 0.00 | 0.00 | 0.00 | 29 | 914.7 |
| 20260505205343 | 71 | 253 | 4.3 | 10.4 | 0.00 | 0.00 | 0.00 | 28 | 914.8 |
| 20260505205240 | 71 | 237 | 4.3 | 10.4 | 0.00 | 0.00 | 0.00 | 28 | 914.8 |
| 20260505205133 | 71 | 214 | 4.3 | 10.4 | 0.00 | 0.00 | 0.00 | 29 | 914.8 |
| 20260505205028 | 71 | 204 | 4.3 | 10.4 | 0.00 | 0.00 | 0.00 | 29 | 914.7 |
| 20260505204700 | 71 | 175 | 3.5 | 10.4 | 0.00 | 0.00 | 0.00 | 28 | 914.7 |
| 20260505204552 | 71 | 254 | 3.5 | 10.4 | 0.00 | 0.00 | 0.00 | 28 | 914.7 |
| 20260505204447 | 71 | 223 | 2.6 | 10.4 | 0.00 | 0.00 | 0.00 | 28 | 914.7 |
| 20260505204123 | 71 | 230 | 1.7 | 7.0 | 0.00 | 0.00 | 0.00 | 30 | 914.7 |
| 20260505204015 | 71 | 210 | 0.9 | 6.1 | 0.00 | 0.00 | 0.00 | 30 | 914.7 |
| 20260505203911 | 71 | 248 | 0.9 | 6.1 | 0.00 | 0.00 | 0.00 | 30 | 914.7 |
| 20260505203804 | 70 | 185 | 0.9 | 4.3 | 0.00 | 0.00 | 0.00 | 30 | 914.8 |
| 20260505203701 | 70 | 209 | 0.9 | 4.3 | 0.00 | 0.00 | 0.00 | 30 | 914.8 |
| 20260505203559 | 70 | 215 | 0.9 | 4.3 | 0.00 | 0.00 | 0.00 | 30 | 914.7 |
| 20260505203454 | 70 | 214 | 0.9 | 4.3 | 0.00 | 0.00 | 0.00 | 31 | 914.8 |
| 20260505203347 | 70 | 235 | 0.9 | 4.3 | 0.00 | 0.00 | 0.00 | 31 | 914.8 |
| 20260505203245 | 69 | 205 | 0.9 | 4.3 | 0.00 | 0.00 | 0.00 | 31 | 914.8 |
| 20260505202916 | 69 | 109 | 0.9 | 4.3 | 0.00 | 0.00 | 0.00 | 30 | 914.8 |
| 20260505202814 | 69 | 44 | 0.9 | 4.3 | 0.00 | 0.00 | 0.00 | 30 | 914.8 |
| 20260505202710 | 69 | 84 | 0.9 | 4.3 | 0.00 | 0.00 | 0.00 | 30 | 914.8 |
| 20260505202602 | 69 | 42 | 0.9 | 4.3 | 0.00 | 0.00 | 0.00 | 31 | 914.9 |
| 20260505202454 | 69 | 173 | 0.9 | 4.3 | 0.00 | 0.00 | 0.00 | 31 | 914.9 |
| 20260505202351 | 69 | 174 | 0.9 | 4.3 | 0.00 | 0.00 | 0.00 | 31 | 914.9 |
| 20260505202246 | 69 | 142 | 1.7 | 4.3 | 0.00 | 0.00 | 0.00 | 31 | 914.8 |
| 20260505202140 | 69 | 148 | 1.7 | 4.3 | 0.00 | 0.00 | 0.00 | 30 | 914.9 |
| 20260505202035 | 69 | 153 | 0.9 | 4.3 | 0.00 | 0.00 | 0.00 | 31 | 914.8 |
| 20260505201929 | 69 | 97 | 0.9 | 3.5 | 0.00 | 0.00 | 0.00 | 31 | 914.8 |
| 20260505201602 | 69 | 169 | 0.9 | 3.5 | 0.00 | 0.00 | 0.00 | 30 | 914.9 |
| 20260505201454 | 69 | 206 | 0.9 | 3.5 | 0.00 | 0.00 | 0.00 | 30 | 914.9 |
| 20260505201352 | 69 | 175 | 0.9 | 3.5 | 0.00 | 0.00 | 0.00 | 30 | 914.9 |
| 20260505201248 | 69 | 187 | 0.9 | 7.8 | 0.00 | 0.00 | 0.00 | 30 | 914.9 |
| 20260505201146 | 69 | 159 | 0.9 | 7.8 | 0.00 | 0.00 | 0.00 | 30 | 914.9 |
| 20260505200823 | 69 | 262 | 0.9 | 7.8 | 0.00 | 0.00 | 0.00 | 30 | 914.9 |
| 20260505200459 | 70 | 14 | 1.7 | 7.8 | 0.00 | 0.00 | 0.00 | 30 | 914.9 |
| 20260505200354 | 70 | 309 | 2.6 | 7.8 | 0.00 | 0.00 | 0.00 | 30 | 914.9 |
| 20260505200252 | 69 | 101 | 2.6 | 7.8 | 0.00 | 0.00 | 0.00 | 31 | 915.0 |
| 20260505200145 | 69 | 271 | 2.6 | 7.8 | 0.00 | 0.00 | 0.00 | 30 | 914.9 |
| 20260505200039 | 69 | 180 | 3.5 | 7.8 | 0.00 | 0.00 | 0.00 | 30 | 915.1 |
| 20260505195934 | 70 | 161 | 3.5 | 7.8 | 0.00 | 0.00 | 0.00 | 30 | 915.0 |
| 20260505195830 | 70 | 164 | 3.5 | 7.8 | 0.00 | 0.00 | 0.00 | 30 | 915.0 |
| 20260505195726 | 70 | 223 | 3.5 | 7.8 | 0.00 | 0.00 | 0.00 | 30 | 915.0 |
| 20260505195403 | 70 | 198 | 2.6 | 7.8 | 0.00 | 0.00 | 0.00 | 29 | 915.1 |
| 20260505195259 | 70 | 244 | 1.7 | 7.8 | 0.00 | 0.00 | 0.00 | 29 | 915.1 |
| 20260505195155 | 70 | 182 | 1.7 | 5.2 | 0.00 | 0.00 | 0.00 | 29 | 915.1 |
| 20260505195049 | 70 | 157 | 1.7 | 5.2 | 0.00 | 0.00 | 0.00 | 29 | 915.1 |
| 20260505194941 | 70 | 194 | 1.7 | 5.2 | 0.00 | 0.00 | 0.00 | 29 | 915.1 |
| 20260505194837 | 70 | 173 | 1.7 | 5.2 | 0.00 | 0.00 | 0.00 | 30 | 915.1 |
| 20260505194735 | 70 | 184 | 1.7 | 6.1 | 0.00 | 0.00 | 0.00 | 30 | 915.1 |
| 20260505194631 | 70 | 160 | 1.7 | 6.1 | 0.00 | 0.00 | 0.00 | 30 | 915.1 |
| 20260505194525 | 70 | 182 | 2.6 | 6.1 | 0.00 | 0.00 | 0.00 | 30 | 915.2 |
| 20260505194421 | 70 | 163 | 2.6 | 6.1 | 0.00 | 0.00 | 0.00 | 30 | 915.2 |
| 20260505194315 | 70 | 146 | 1.7 | 6.1 | 0.00 | 0.00 | 0.00 | 30 | 915.1 |
| 20260505193734 | 70 | 117 | 1.7 | 6.1 | 0.00 | 0.00 | 0.00 | 29 | 915.1 |
| 20260505193630 | 70 | 90 | 0.9 | 6.1 | 0.00 | 0.00 | 0.00 | 29 | 915.2 |
| 20260505193526 | 71 | 53 | 0.9 | 6.1 | 0.00 | 0.00 | 0.00 | 29 | 915.2 |
| 20260505193424 | 71 | 42 | 0.9 | 6.1 | 0.00 | 0.00 | 0.00 | 30 | 915.2 |
| 20260505193322 | 71 | 17 | 0.9 | 6.1 | 0.00 | 0.00 | 0.00 | 30 | 915.2 |
| 20260505193217 | 70 | 150 | 0.9 | 6.1 | 0.00 | 0.00 | 0.00 | 30 | 915.2 |
| 20260505193110 | 70 | 73 | 0.9 | 6.1 | 0.00 | 0.00 | 0.00 | 31 | 915.2 |
| 20260505193003 | 70 | 202 | 0.9 | 6.1 | 0.00 | 0.00 | 0.00 | 30 | 915.2 |
| 20260505192855 | 70 | 181 | 0.9 | 6.1 | 0.00 | 0.00 | 0.00 | 30 | 915.2 |
| 20260505192751 | 70 | 138 | 0.9 | 11.3 | 0.00 | 0.00 | 0.00 | 31 | 915.2 |
| 20260505192646 | 69 | 135 | 0.9 | 11.3 | 0.00 | 0.00 | 0.00 | 30 | 915.3 |
| 20260505192539 | 69 | 192 | 0.9 | 11.3 | 0.00 | 0.00 | 0.00 | 30 | 915.3 |
| 20260505191950 | 69 | 181 | 1.7 | 11.3 | 0.00 | 0.00 | 0.00 | 31 | 915.3 |
| 20260505191847 | 69 | 333 | 2.6 | 11.3 | 0.00 | 0.00 | 0.00 | 31 | 915.3 |
| 20260505191744 | 69 | 292 | 2.6 | 11.3 | 0.00 | 0.00 | 0.00 | 31 | 915.3 |
| 20260505191642 | 69 | 253 | 2.6 | 11.3 | 0.00 | 0.00 | 0.00 | 31 | 915.3 |
| 20260505191540 | 69 | 211 | 2.6 | 11.3 | 0.00 | 0.00 | 0.00 | 31 | 915.3 |
| 20260505191433 | 69 | 272 | 2.6 | 11.3 | 0.00 | 0.00 | 0.00 | 31 | 915.3 |
| 20260505191330 | 69 | 259 | 2.6 | 11.3 | 0.00 | 0.00 | 0.00 | 31 | 915.3 |
| 20260505191226 | 69 | 235 | 2.6 | 11.3 | 0.00 | 0.00 | 0.00 | 31 | 915.3 |
| 20260505190859 | 68 | 213 | 3.5 | 11.3 | 0.00 | 0.00 | 0.00 | 32 | 915.3 |
| 20260505190755 | 68 | 304 | 3.5 | 8.7 | 0.00 | 0.00 | 0.00 | 32 | 915.3 |
| 20260505190429 | 68 | 286 | 3.5 | 8.7 | 0.00 | 0.00 | 0.00 | 32 | 915.4 |
| 20260505190324 | 68 | 300 | 3.5 | 8.7 | 0.00 | 0.00 | 0.00 | 32 | 915.4 |
| 20260505190221 | 68 | 290 | 3.5 | 8.7 | 0.00 | 0.00 | 0.00 | 32 | 915.4 |
| 20260505190118 | 68 | 248 | 3.5 | 8.7 | 0.00 | 0.00 | 0.00 | 32 | 915.4 |
| 20260505190013 | 68 | 217 | 2.6 | 8.7 | 0.00 | 0.00 | 0.00 | 32 | 915.4 |
| 20260505185652 | 67 | 219 | 1.7 | 7.0 | 0.00 | 0.00 | 0.00 | 32 | 915.4 |
| 20260505185547 | 67 | 239 | 1.7 | 7.0 | 0.00 | 0.00 | 0.00 | 33 | 915.4 |
| 20260505185445 | 67 | 181 | 1.7 | 7.0 | 0.00 | 0.00 | 0.00 | 33 | 915.4 |
| 20260505184855 | 67 | 212 | 1.7 | 8.7 | 0.00 | 0.00 | 0.00 | 34 | 915.4 |
| 20260505184751 | 67 | 163 | 1.7 | 8.7 | 0.00 | 0.00 | 0.00 | 34 | 915.4 |
| 20260505184648 | 67 | 236 | 1.7 | 8.7 | 0.00 | 0.00 | 0.00 | 34 | 915.5 |
| 20260505184320 | 67 | 273 | 1.7 | 8.7 | 0.00 | 0.00 | 0.00 | 35 | 915.5 |
| 20260505184216 | 67 | 285 | 1.7 | 8.7 | 0.00 | 0.00 | 0.00 | 35 | 915.5 |
| 20260505184110 | 66 | 238 | 1.7 | 8.7 | 0.00 | 0.00 | 0.00 | 35 | 915.5 |
| 20260505184003 | 66 | 255 | 2.6 | 8.7 | 0.00 | 0.00 | 0.00 | 35 | 915.5 |
| 20260505183857 | 66 | 290 | 2.6 | 8.7 | 0.00 | 0.00 | 0.00 | 34 | 915.6 |
| 20260505183750 | 66 | 301 | 2.6 | 8.7 | 0.00 | 0.00 | 0.00 | 35 | 915.6 |
| 20260505183647 | 67 | 320 | 2.6 | 8.7 | 0.00 | 0.00 | 0.00 | 35 | 915.6 |
| 20260505183543 | 67 | 312 | 2.6 | 8.7 | 0.00 | 0.00 | 0.00 | 35 | 915.6 |
| 20260505183435 | 67 | 330 | 3.5 | 8.7 | 0.00 | 0.00 | 0.00 | 35 | 915.6 |
| 20260505183333 | 67 | 261 | 2.6 | 8.7 | 0.00 | 0.00 | 0.00 | 36 | 915.6 |
| 20260505183228 | 67 | 299 | 2.6 | 8.7 | 0.00 | 0.00 | 0.00 | 35 | 915.6 |
| 20260505183125 | 67 | 251 | 2.6 | 8.7 | 0.00 | 0.00 | 0.00 | 35 | 915.6 |
| 20260505183020 | 66 | 242 | 2.6 | 8.7 | 0.00 | 0.00 | 0.00 | 36 | 915.6 |
| 20260505182915 | 66 | 232 | 2.6 | 8.7 | 0.00 | 0.00 | 0.00 | 36 | 915.6 |
| 20260505182811 | 66 | 242 | 2.6 | 7.0 | 0.00 | 0.00 | 0.00 | 37 | 915.6 |
| 20260505182447 | 66 | 198 | 2.6 | 7.8 | 0.00 | 0.00 | 0.00 | 36 | 915.5 |
| 20260505182343 | 66 | 198 | 2.6 | 7.8 | 0.00 | 0.00 | 0.00 | 37 | 915.6 |
| 20260505182236 | 66 | 211 | 2.6 | 7.8 | 0.00 | 0.00 | 0.00 | 37 | 915.5 |
| 20260505182132 | 66 | 229 | 2.6 | 7.8 | 0.00 | 0.00 | 0.00 | 37 | 915.6 |
| 20260505182029 | 66 | 221 | 2.6 | 7.8 | 0.00 | 0.00 | 0.00 | 37 | 915.5 |
| 20260505181924 | 66 | 239 | 1.7 | 7.8 | 0.00 | 0.00 | 0.00 | 37 | 915.5 |
| 20260505181818 | 66 | 254 | 1.7 | 7.8 | 0.00 | 0.00 | 0.00 | 37 | 915.6 |
| 20260505181712 | 66 | 286 | 1.7 | 7.8 | 0.00 | 0.00 | 0.00 | 37 | 915.5 |
| 20260505181351 | 66 | 219 | 1.7 | 10.4 | 0.00 | 0.00 | 0.00 | 37 | 915.5 |
| 20260505181247 | 66 | 276 | 1.7 | 10.4 | 0.00 | 0.00 | 0.00 | 37 | 915.5 |
| 20260505181144 | 66 | 296 | 2.6 | 10.4 | 0.00 | 0.00 | 0.00 | 37 | 915.5 |
| 20260505181040 | 66 | 286 | 2.6 | 10.4 | 0.00 | 0.00 | 0.00 | 37 | 915.5 |
| 20260505180938 | 66 | 241 | 2.6 | 10.4 | 0.00 | 0.00 | 0.00 | 37 | 915.5 |
| 20260505180832 | 66 | 256 | 3.5 | 10.4 | 0.00 | 0.00 | 0.00 | 36 | 915.5 |
| 20260505180725 | 66 | 259 | 3.5 | 10.4 | 0.00 | 0.00 | 0.00 | 36 | 915.5 |
| 20260505180617 | 66 | 238 | 4.3 | 10.4 | 0.00 | 0.00 | 0.00 | 36 | 915.5 |
| 20260505180513 | 66 | 47 | 4.3 | 10.4 | 0.00 | 0.00 | 0.00 | 36 | 915.5 |
| 20260505180407 | 66 | 285 | 4.3 | 10.4 | 0.00 | 0.00 | 0.00 | 37 | 915.6 |
| 20260505180259 | 66 | 241 | 4.3 | 10.4 | 0.00 | 0.00 | 0.00 | 37 | 915.6 |
| 20260505180156 | 66 | 237 | 4.3 | 10.4 | 0.00 | 0.00 | 0.00 | 37 | 915.5 |
| 20260505180048 | 66 | 230 | 4.3 | 10.4 | 0.00 | 0.00 | 0.00 | 37 | 915.5 |
| 20260505175946 | 66 | 211 | 4.3 | 10.4 | 0.00 | 0.00 | 0.00 | 37 | 915.5 |
| 20260505175841 | 66 | 223 | 3.5 | 10.4 | 0.00 | 0.00 | 0.00 | 36 | 915.5 |
| 20260505175737 | 66 | 232 | 3.5 | 10.4 | 0.00 | 0.00 | 0.00 | 36 | 915.5 |
| 20260505175630 | 66 | 236 | 2.6 | 10.4 | 0.00 | 0.00 | 0.00 | 37 | 915.5 |
| 20260505175526 | 66 | 223 | 2.6 | 9.6 | 0.00 | 0.00 | 0.00 | 37 | 915.5 |
| 20260505175419 | 66 | 223 | 2.6 | 9.6 | 0.00 | 0.00 | 0.00 | 37 | 915.5 |
| 20260505175314 | 66 | 216 | 1.7 | 6.1 | 0.00 | 0.00 | 0.00 | 37 | 915.5 |
| 20260505174947 | 66 | 211 | 1.7 | 6.1 | 0.00 | 0.00 | 0.00 | 37 | 915.5 |
| 20260505174844 | 66 | 247 | 1.7 | 7.0 | 0.00 | 0.00 | 0.00 | 37 | 915.5 |
| 20260505174742 | 66 | 234 | 1.7 | 7.0 | 0.00 | 0.00 | 0.00 | 37 | 915.5 |
| 20260505174640 | 66 | 233 | 1.7 | 7.0 | 0.00 | 0.00 | 0.00 | 37 | 915.5 |
| 20260505174314 | 66 | 260 | 1.7 | 7.0 | 0.00 | 0.00 | 0.00 | 37 | 915.5 |
| 20260505174206 | 66 | 241 | 1.7 | 7.0 | 0.00 | 0.00 | 0.00 | 37 | 915.5 |
| 20260505174102 | 66 | 224 | 1.7 | 7.0 | 0.00 | 0.00 | 0.00 | 38 | 915.4 |
| 20260505173959 | 66 | 257 | 1.7 | 7.0 | 0.00 | 0.00 | 0.00 | 38 | 915.5 |
| 20260505173635 | 65 | 265 | 1.7 | 7.0 | 0.00 | 0.00 | 0.00 | 39 | 915.4 |
| 20260505173533 | 65 | 257 | 1.7 | 7.0 | 0.00 | 0.00 | 0.00 | 39 | 915.4 |
| 20260505173428 | 65 | 228 | 1.7 | 7.0 | 0.00 | 0.00 | 0.00 | 39 | 915.4 |
| 20260505173327 | 65 | 233 | 1.7 | 7.0 | 0.00 | 0.00 | 0.00 | 38 | 915.5 |
| 20260505173222 | 65 | 331 | 1.7 | 7.0 | 0.00 | 0.00 | 0.00 | 38 | 915.4 |
| 20260505172854 | 64 | 261 | 0.9 | 7.0 | 0.00 | 0.00 | 0.00 | 38 | 915.5 |
| 20260505172752 | 64 | 68 | 0.9 | 4.3 | 0.00 | 0.00 | 0.00 | 38 | 915.5 |
| 20260505172432 | 64 | 347 | 0.9 | 6.1 | 0.00 | 0.00 | 0.00 | 38 | 915.5 |
| 20260505172324 | 64 | 344 | 0.9 | 6.1 | 0.00 | 0.00 | 0.00 | 38 | 915.5 |
| 20260505172218 | 64 | 340 | 0.9 | 6.1 | 0.00 | 0.00 | 0.00 | 38 | 915.5 |
| 20260505172116 | 64 | 314 | 0.9 | 6.1 | 0.00 | 0.00 | 0.00 | 38 | 915.5 |
| 20260505172011 | 64 | 342 | 0.9 | 6.1 | 0.00 | 0.00 | 0.00 | 39 | 915.5 |
| 20260505171905 | 64 | 9 | 0.9 | 6.1 | 0.00 | 0.00 | 0.00 | 39 | 915.5 |
| 20260505171800 | 64 | 309 | 1.7 | 6.1 | 0.00 | 0.00 | 0.00 | 39 | 915.5 |
| 20260505171654 | 64 | 212 | 1.7 | 6.1 | 0.00 | 0.00 | 0.00 | 39 | 915.5 |
| 20260505171326 | 64 | 208 | 2.6 | 6.1 | 0.00 | 0.00 | 0.00 | 39 | 915.5 |
| 20260505171217 | 64 | 130 | 2.6 | 6.1 | 0.00 | 0.00 | 0.00 | 39 | 915.5 |
| 20260505171115 | 64 | 249 | 2.6 | 6.1 | 0.00 | 0.00 | 0.00 | 39 | 915.5 |
| 20260505171012 | 64 | 226 | 2.6 | 6.1 | 0.00 | 0.00 | 0.00 | 38 | 915.5 |
| 20260505170909 | 64 | 215 | 2.6 | 6.1 | 0.00 | 0.00 | 0.00 | 39 | 915.5 |
| 20260505170805 | 64 | 245 | 1.7 | 6.1 | 0.00 | 0.00 | 0.00 | 39 | 915.5 |
| 20260505170440 | 64 | 226 | 1.7 | 6.1 | 0.00 | 0.00 | 0.00 | 39 | 915.5 |
| 20260505170337 | 64 | 226 | 1.7 | 6.1 | 0.00 | 0.00 | 0.00 | 39 | 915.5 |
| 20260505170234 | 64 | 227 | 0.9 | 6.1 | 0.00 | 0.00 | 0.00 | 38 | 915.5 |
| 20260505165907 | 64 | 259 | 0.9 | 6.1 | 0.00 | 0.00 | 0.00 | 40 | 915.5 |
| 20260505165805 | 64 | 261 | 0.9 | 6.1 | 0.00 | 0.00 | 0.00 | 40 | 915.4 |
| 20260505165703 | 64 | 250 | 0.0 | 6.1 | 0.00 | 0.00 | 0.00 | 39 | 915.4 |
| 20260505165559 | 64 | 208 | 0.0 | 6.1 | 0.00 | 0.00 | 0.00 | 41 | 915.5 |
| 20260505165454 | 64 | 86 | 0.0 | 2.6 | 0.00 | 0.00 | 0.00 | 41 | 915.4 |
| 20260505165350 | 63 | 239 | 0.0 | 6.1 | 0.00 | 0.00 | 0.00 | 41 | 915.5 |
| 20260505165247 | 63 | 17 | 0.0 | 6.1 | 0.00 | 0.00 | 0.00 | 41 | 915.4 |
| 20260505165139 | 63 | 44 | 0.0 | 6.1 | 0.00 | 0.00 | 0.00 | 41 | 915.4 |
| 20260505165036 | 63 | 163 | 0.0 | 6.1 | 0.00 | 0.00 | 0.00 | 41 | 915.4 |
| 20260505164932 | 63 | 163 | 0.0 | 6.1 | 0.00 | 0.00 | 0.00 | 41 | 915.5 |
| 20260505164606 | 62 | 174 | 0.9 | 6.1 | 0.00 | 0.00 | 0.00 | 42 | 915.4 |
| 20260505164459 | 62 | 204 | 1.7 | 6.1 | 0.00 | 0.00 | 0.00 | 42 | 915.4 |
| 20260505164354 | 62 | 184 | 1.7 | 6.1 | 0.00 | 0.00 | 0.00 | 42 | 915.4 |
| 20260505164247 | 62 | 184 | 1.7 | 6.1 | 0.00 | 0.00 | 0.00 | 42 | 915.4 |
| 20260505164142 | 62 | 277 | 1.7 | 6.1 | 0.00 | 0.00 | 0.00 | 42 | 915.4 |
| 20260505164039 | 62 | 173 | 1.7 | 6.1 | 0.00 | 0.00 | 0.00 | 42 | 915.5 |
| 20260505163717 | 62 | 179 | 2.6 | 6.1 | 0.00 | 0.00 | 0.00 | 42 | 915.4 |
| 20260505163612 | 61 | 211 | 2.6 | 6.1 | 0.00 | 0.00 | 0.00 | 43 | 915.4 |
| 20260505163250 | 61 | 166 | 1.7 | 5.2 | 0.00 | 0.00 | 0.00 | 43 | 915.4 |
| 20260505163146 | 61 | 186 | 1.7 | 5.2 | 0.00 | 0.00 | 0.00 | 43 | 915.4 |
| 20260505163043 | 61 | 222 | 1.7 | 5.2 | 0.00 | 0.00 | 0.00 | 43 | 915.4 |
| 20260505162935 | 61 | 234 | 1.7 | 5.2 | 0.00 | 0.00 | 0.00 | 43 | 915.3 |
| 20260505162828 | 61 | 201 | 1.7 | 5.2 | 0.00 | 0.00 | 0.00 | 44 | 915.4 |
| 20260505162721 | 61 | 265 | 1.7 | 5.2 | 0.00 | 0.00 | 0.00 | 43 | 915.3 |
| 20260505162615 | 61 | 235 | 1.7 | 4.3 | 0.00 | 0.00 | 0.00 | 44 | 915.3 |
| 20260505162511 | 61 | 163 | 1.7 | 4.3 | 0.00 | 0.00 | 0.00 | 44 | 915.3 |
| 20260505162408 | 61 | 148 | 1.7 | 4.3 | 0.00 | 0.00 | 0.00 | 44 | 915.4 |
| 20260505162302 | 61 | 144 | 1.7 | 5.2 | 0.00 | 0.00 | 0.00 | 44 | 915.3 |
| 20260505162155 | 61 | 167 | 1.7 | 5.2 | 0.00 | 0.00 | 0.00 | 44 | 915.3 |
| 20260505161611 | 61 | 211 | 1.7 | 5.2 | 0.00 | 0.00 | 0.00 | 44 | 915.3 |
| 20260505161509 | 61 | 171 | 1.7 | 5.2 | 0.00 | 0.00 | 0.00 | 44 | 915.3 |
| 20260505161406 | 61 | 165 | 2.6 | 5.2 | 0.00 | 0.00 | 0.00 | 44 | 915.3 |
| 20260505161301 | 61 | 161 | 2.6 | 5.2 | 0.00 | 0.00 | 0.00 | 44 | 915.2 |
| 20260505161156 | 61 | 182 | 2.6 | 5.2 | 0.00 | 0.00 | 0.00 | 44 | 915.3 |
| 20260505161050 | 61 | 169 | 2.6 | 5.2 | 0.00 | 0.00 | 0.00 | 44 | 915.3 |
| 20260505160944 | 61 | 171 | 2.6 | 5.2 | 0.00 | 0.00 | 0.00 | 44 | 915.3 |
| 20260505160356 | 61 | 150 | 1.7 | 5.2 | 0.00 | 0.00 | 0.00 | 43 | 915.3 |
| 20260505153216 | 60 | 175 | 0.9 | 5.2 | 0.00 | 0.00 | 0.00 | 47 | 915.4 |
| 20260505153112 | 60 | 96 | 0.9 | 5.2 | 0.00 | 0.00 | 0.00 | 47 | 915.3 |
| 20260505153005 | 60 | 165 | 0.9 | 5.2 | 0.00 | 0.00 | 0.00 | 47 | 915.3 |
| 20260505152902 | 59 | 123 | 0.9 | 5.2 | 0.00 | 0.00 | 0.00 | 48 | 915.3 |
| 20260505152757 | 59 | 82 | 1.7 | 5.2 | 0.00 | 0.00 | 0.00 | 48 | 915.3 |
| 20260505152434 | 59 | 135 | 1.7 | 7.0 | 0.00 | 0.00 | 0.00 | 48 | 915.2 |
| 20260505152328 | 59 | 130 | 1.7 | 7.0 | 0.00 | 0.00 | 0.00 | 49 | 915.2 |
| 20260505152221 | 59 | 126 | 1.7 | 7.0 | 0.00 | 0.00 | 0.00 | 48 | 915.2 |
| 20260505152118 | 58 | 137 | 2.6 | 7.0 | 0.00 | 0.00 | 0.00 | 49 | 915.2 |
| 20260505152012 | 58 | 134 | 2.6 | 7.0 | 0.00 | 0.00 | 0.00 | 49 | 915.2 |
| 20260505151908 | 58 | 159 | 2.6 | 7.0 | 0.00 | 0.00 | 0.00 | 49 | 915.2 |
| 20260505151802 | 58 | 169 | 1.7 | 7.0 | 0.00 | 0.00 | 0.00 | 49 | 915.2 |
| 20260505151436 | 58 | 164 | 1.7 | 7.0 | 0.00 | 0.00 | 0.00 | 49 | 915.1 |
| 20260505151329 | 58 | 142 | 1.7 | 7.0 | 0.00 | 0.00 | 0.00 | 50 | 915.2 |
| 20260505151224 | 58 | 99 | 2.6 | 7.0 | 0.00 | 0.00 | 0.00 | 50 | 915.1 |
| 20260505151116 | 58 | 140 | 1.7 | 7.0 | 0.00 | 0.00 | 0.00 | 50 | 915.1 |
| 20260505151011 | 58 | 140 | 1.7 | 7.0 | 0.00 | 0.00 | 0.00 | 50 | 915.1 |
| 20260505150904 | 58 | 138 | 1.7 | 7.0 | 0.00 | 0.00 | 0.00 | 50 | 915.1 |
| 20260505150800 | 58 | 182 | 2.6 | 7.0 | 0.00 | 0.00 | 0.00 | 50 | 915.1 |
| 20260505150657 | 58 | 143 | 2.6 | 7.0 | 0.00 | 0.00 | 0.00 | 50 | 915.1 |
| 20260505150552 | 58 | 121 | 2.6 | 7.0 | 0.00 | 0.00 | 0.00 | 50 | 915.1 |
| 20260505150449 | 58 | 125 | 1.7 | 7.0 | 0.00 | 0.00 | 0.00 | 50 | 915.0 |
| 20260505150122 | 58 | 143 | 1.7 | 7.0 | 0.00 | 0.00 | 0.00 | 50 | 915.1 |
| 20260505140645 | 55 | 148 | 0.0 | 4.3 | 0.00 | 0.00 | 0.00 | 54 | 914.8 |
| 20260505140539 | 55 | 154 | 0.0 | 4.3 | 0.00 | 0.00 | 0.00 | 54 | 914.8 |
| 20260505140433 | 55 | 121 | 0.0 | 3.5 | 0.00 | 0.00 | 0.00 | 54 | 914.8 |
| 20260505140331 | 55 | 176 | 0.0 | 3.5 | 0.00 | 0.00 | 0.00 | 54 | 914.8 |
| 20260505140227 | 55 | 132 | 0.0 | 3.5 | 0.00 | 0.00 | 0.00 | 54 | 914.8 |
| 20260505140122 | 55 | 186 | 0.0 | 3.5 | 0.00 | 0.00 | 0.00 | 54 | 914.7 |
| 20260505130154 | 51 | 92 | 0.0 | 5.2 | 0.00 | 0.00 | 0.00 | 56 | 914.2 |
| 20260505124834 | 52 | 149 | 0.0 | 0.9 | 0.00 | 0.00 | 0.00 | 56 | 914.1 |
| 20260505124728 | 52 | 142 | 0.0 | 0.9 | 0.00 | 0.00 | 0.00 | 56 | 914.0 |
| 20260505124624 | 52 | 143 | 0.0 | 0.9 | 0.00 | 0.00 | 0.00 | 56 | 914.0 |
| 20260505124519 | 52 | 143 | 0.0 | 0.9 | 0.00 | 0.00 | 0.00 | 56 | 914.0 |
| 20260505124415 | 52 | 146 | 0.0 | 0.9 | 0.00 | 0.00 | 0.00 | 56 | 914.0 |
| 20260505124307 | 52 | 132 | 0.0 | 0.9 | 0.00 | 0.00 | 0.00 | 55 | 914.1 |
| 20260505123942 | 52 | 99 | 0.0 | 0.9 | 0.00 | 0.00 | 0.00 | 55 | 914.0 |
| 20260505123839 | 52 | 143 | 0.0 | 0.0 | 0.00 | 0.00 | 0.00 | 56 | 914.0 |
| 20260505123734 | 52 | 143 | 0.0 | 0.9 | 0.00 | 0.00 | 0.00 | 56 | 914.0 |
| 20260505123632 | 52 | 143 | 0.0 | 0.9 | 0.00 | 0.00 | 0.00 | 56 | 914.0 |
| 20260505123050 | 52 | 136 | 0.0 | 0.9 | 0.00 | 0.00 | 0.00 | 55 | 914.0 |
| 20260505122945 | 52 | 151 | 0.0 | 0.9 | 0.00 | 0.00 | 0.00 | 55 | 914.0 |
| 20260505122839 | 52 | 150 | 0.0 | 0.9 | 0.00 | 0.00 | 0.00 | 55 | 914.0 |
| 20260505122735 | 52 | 157 | 0.0 | 0.9 | 0.00 | 0.00 | 0.00 | 55 | 913.9 |
| 20260505122143 | 52 | 142 | 0.0 | 1.7 | 0.00 | 0.00 | 0.00 | 55 | 914.1 |
| 20260505122041 | 52 | 140 | 0.0 | 1.7 | 0.00 | 0.00 | 0.00 | 55 | 914.0 |
| 20260505121937 | 52 | 140 | 0.0 | 1.7 | 0.00 | 0.00 | 0.00 | 55 | 914.0 |
| 20260505121832 | 52 | 132 | 0.0 | 1.7 | 0.00 | 0.00 | 0.00 | 55 | 914.1 |
| 20260505121727 | 52 | 118 | 0.0 | 1.7 | 0.00 | 0.00 | 0.00 | 55 | 914.1 |
| 20260505121620 | 52 | 117 | 0.0 | 1.7 | 0.00 | 0.00 | 0.00 | 55 | 914.1 |
| 20260505121517 | 52 | 123 | 0.0 | 1.7 | 0.00 | 0.00 | 0.00 | 55 | 914.1 |
| 20260505121413 | 52 | 123 | 0.0 | 1.7 | 0.00 | 0.00 | 0.00 | 55 | 914.1 |
| 20260505121308 | 52 | 123 | 0.0 | 1.7 | 0.00 | 0.00 | 0.00 | 55 | 914.1 |
| 20260505121200 | 52 | 124 | 0.0 | 1.7 | 0.00 | 0.00 | 0.00 | 55 | 914.1 |
| 20260505121054 | 52 | 124 | 0.0 | 1.7 | 0.00 | 0.00 | 0.00 | 55 | 914.0 |
| 20260505120952 | 52 | 124 | 0.0 | 1.7 | 0.00 | 0.00 | 0.00 | 55 | 914.0 |
| 20260505120408 | 52 | 140 | 0.0 | 1.7 | 0.00 | 0.00 | 0.00 | 55 | 913.9 |
| 20260505120039 | 52 | 159 | 0.0 | 1.7 | 0.00 | 0.00 | 0.00 | 55 | 914.0 |
| 20260505115932 | 52 | 164 | 0.0 | 1.7 | 0.00 | 0.00 | 0.00 | 55 | 914.0 |
| 20260505115827 | 52 | 164 | 0.0 | 1.7 | 0.00 | 0.00 | 0.00 | 55 | 914.1 |
| 20260505115724 | 52 | 164 | 0.0 | 1.7 | 0.00 | 0.00 | 0.00 | 55 | 914.1 |
| 20260505115620 | 52 | 164 | 0.0 | 1.7 | 0.00 | 0.00 | 0.00 | 55 | 914.1 |
| 20260505115518 | 52 | 164 | 0.0 | 1.7 | 0.00 | 0.00 | 0.00 | 55 | 914.1 |
| 20260505115414 | 52 | 164 | 0.0 | 1.7 | 0.00 | 0.00 | 0.00 | 55 | 914.1 |
| 20260505115309 | 52 | 164 | 0.0 | 1.7 | 0.00 | 0.00 | 0.00 | 55 | 914.1 |
| 20260505115206 | 52 | 164 | 0.0 | 1.7 | 0.00 | 0.00 | 0.00 | 55 | 914.1 |
| 20260505115100 | 52 | 164 | 0.0 | 1.7 | 0.00 | 0.00 | 0.00 | 55 | 914.2 |
| 20260505114957 | 52 | 164 | 0.0 | 1.7 | 0.00 | 0.00 | 0.00 | 55 | 914.2 |
| 20260505114630 | 52 | 129 | 0.0 | 1.7 | 0.00 | 0.00 | 0.00 | 55 | 914.2 |
| 20260505114527 | 52 | 123 | 0.0 | 1.7 | 0.00 | 0.00 | 0.00 | 55 | 914.2 |
| 20260505114423 | 52 | 122 | 0.0 | 1.7 | 0.00 | 0.00 | 0.00 | 55 | 914.1 |
| 20260505114320 | 52 | 131 | 0.0 | 1.7 | 0.00 | 0.00 | 0.00 | 55 | 914.2 |
| 20260505113956 | 52 | 141 | 0.0 | 0.0 | 0.00 | 0.00 | 0.00 | 54 | 914.2 |
| 20260505113853 | 52 | 140 | 0.0 | 0.0 | 0.00 | 0.00 | 0.00 | 54 | 914.1 |
| 20260505113746 | 52 | 140 | 0.0 | 0.0 | 0.00 | 0.00 | 0.00 | 54 | 914.2 |
| 20260505113643 | 52 | 140 | 0.0 | 2.6 | 0.00 | 0.00 | 0.00 | 55 | 914.2 |
| 20260505113317 | 52 | 140 | 0.9 | 2.6 | 0.00 | 0.00 | 0.00 | 55 | 914.3 |
| 20260505113209 | 52 | 140 | 0.9 | 2.6 | 0.00 | 0.00 | 0.00 | 54 | 914.3 |
| 20260505113106 | 52 | 140 | 0.9 | 2.6 | 0.00 | 0.00 | 0.00 | 54 | 914.3 |
| 20260505112958 | 52 | 140 | 0.9 | 2.6 | 0.00 | 0.00 | 0.00 | 54 | 914.2 |
| 20260505112854 | 52 | 139 | 0.9 | 2.6 | 0.00 | 0.00 | 0.00 | 54 | 914.2 |
| 20260505112748 | 52 | 146 | 0.9 | 2.6 | 0.00 | 0.00 | 0.00 | 53 | 914.2 |
| 20260505112641 | 52 | 140 | 0.9 | 1.7 | 0.00 | 0.00 | 0.00 | 53 | 914.2 |
| 20260505112537 | 52 | 153 | 0.9 | 1.7 | 0.00 | 0.00 | 0.00 | 53 | 914.2 |
| 20260505112435 | 52 | 146 | 0.9 | 1.7 | 0.00 | 0.00 | 0.00 | 53 | 914.2 |
| 20260505112331 | 52 | 143 | 0.9 | 1.7 | 0.00 | 0.00 | 0.00 | 53 | 914.2 |
| 20260505112225 | 52 | 155 | 0.9 | 1.7 | 0.00 | 0.00 | 0.00 | 53 | 914.1 |
| 20260505112119 | 52 | 141 | 0.0 | 1.7 | 0.00 | 0.00 | 0.00 | 53 | 914.1 |
| 20260505112011 | 52 | 146 | 0.0 | 1.7 | 0.00 | 0.00 | 0.00 | 53 | 914.2 |
| 20260505111904 | 52 | 145 | 0.0 | 1.7 | 0.00 | 0.00 | 0.00 | 53 | 914.2 |
| 20260505111801 | 52 | 185 | 0.0 | 1.7 | 0.00 | 0.00 | 0.00 | 53 | 914.1 |
| 20260505111215 | 52 | 144 | 0.0 | 0.0 | 0.00 | 0.00 | 0.00 | 54 | 914.1 |
| 20260505111109 | 52 | 144 | 0.0 | 0.0 | 0.00 | 0.00 | 0.00 | 54 | 914.1 |
| 20260505111004 | 52 | 144 | 0.0 | 0.0 | 0.00 | 0.00 | 0.00 | 54 | 914.1 |
| 20260505110858 | 52 | 144 | 0.0 | 0.0 | 0.00 | 0.00 | 0.00 | 54 | 914.1 |
| 20260505110756 | 52 | 144 | 0.0 | 1.7 | 0.00 | 0.00 | 0.00 | 54 | 914.1 |
| 20260505110651 | 52 | 144 | 0.0 | 1.7 | 0.00 | 0.00 | 0.00 | 54 | 914.1 |
| 20260505110546 | 52 | 144 | 0.0 | 0.9 | 0.00 | 0.00 | 0.00 | 54 | 914.1 |
| 20260505110442 | 52 | 144 | 0.0 | 0.9 | 0.00 | 0.00 | 0.00 | 54 | 914.1 |
| 20260505110337 | 52 | 144 | 0.0 | 0.9 | 0.00 | 0.00 | 0.00 | 54 | 914.1 |
| 20260505110231 | 52 | 144 | 0.0 | 0.9 | 0.00 | 0.00 | 0.00 | 54 | 914.1 |
| 20260505110126 | 53 | 144 | 0.0 | 0.9 | 0.00 | 0.00 | 0.00 | 54 | 914.1 |
| 20260505102137 | 54 | 137 | 0.0 | 1.7 | 0.00 | 0.00 | 0.00 | 53 | 914.3 |
| 20260505102030 | 54 | 140 | 0.0 | 4.3 | 0.00 | 0.00 | 0.00 | 53 | 914.3 |
| 20260505101702 | 54 | 136 | 0.9 | 4.3 | 0.00 | 0.00 | 0.00 | 53 | 914.3 |
| 20260505101340 | 54 | 141 | 0.9 | 4.3 | 0.00 | 0.00 | 0.00 | 53 | 914.3 |
| 20260505101233 | 54 | 141 | 0.9 | 4.3 | 0.00 | 0.00 | 0.00 | 53 | 914.3 |
| 20260505101128 | 54 | 140 | 0.9 | 4.3 | 0.00 | 0.00 | 0.00 | 53 | 914.3 |
| 20260505101026 | 54 | 139 | 0.9 | 6.1 | 0.00 | 0.00 | 0.00 | 53 | 914.3 |
| 20260505100923 | 54 | 136 | 0.9 | 6.1 | 0.00 | 0.00 | 0.00 | 53 | 914.3 |
| 20260505100816 | 55 | 150 | 0.9 | 6.1 | 0.00 | 0.00 | 0.00 | 53 | 914.4 |
| 20260505100711 | 55 | 141 | 0.0 | 6.1 | 0.00 | 0.00 | 0.00 | 52 | 914.3 |
| 20260505100604 | 55 | 142 | 0.0 | 6.1 | 0.00 | 0.00 | 0.00 | 52 | 914.3 |
| 20260505100458 | 55 | 154 | 0.0 | 6.1 | 0.00 | 0.00 | 0.00 | 52 | 914.4 |
| 20260505100351 | 55 | 111 | 0.0 | 6.1 | 0.00 | 0.00 | 0.00 | 52 | 914.4 |
| 20260505100247 | 55 | 97 | 0.0 | 6.1 | 0.00 | 0.00 | 0.00 | 51 | 914.4 |
| 20260505095927 | 55 | 77 | 0.9 | 6.1 | 0.00 | 0.00 | 0.00 | 52 | 914.4 |
| 20260505095822 | 55 | 128 | 0.9 | 6.1 | 0.00 | 0.00 | 0.00 | 52 | 914.4 |
| 20260505095715 | 55 | 131 | 0.9 | 6.1 | 0.00 | 0.00 | 0.00 | 52 | 914.4 |
| 20260505095613 | 55 | 155 | 1.7 | 6.1 | 0.00 | 0.00 | 0.00 | 52 | 914.4 |
| 20260505095506 | 55 | 155 | 1.7 | 6.1 | 0.00 | 0.00 | 0.00 | 52 | 914.4 |
| 20260505095144 | 55 | 137 | 1.7 | 6.1 | 0.00 | 0.00 | 0.00 | 52 | 914.3 |
| 20260505095041 | 55 | 141 | 0.9 | 5.2 | 0.00 | 0.00 | 0.00 | 52 | 914.3 |
| 20260505094940 | 55 | 169 | 0.9 | 5.2 | 0.00 | 0.00 | 0.00 | 51 | 914.4 |
| 20260505094832 | 55 | 170 | 0.9 | 5.2 | 0.00 | 0.00 | 0.00 | 51 | 914.4 |
| 20260505094730 | 55 | 150 | 0.9 | 5.2 | 0.00 | 0.00 | 0.00 | 51 | 914.4 |
| 20260505094627 | 55 | 155 | 0.0 | 3.5 | 0.00 | 0.00 | 0.00 | 51 | 914.4 |
| 20260505094523 | 55 | 144 | 0.0 | 2.6 | 0.00 | 0.00 | 0.00 | 50 | 914.4 |
| 20260505094418 | 55 | 129 | 0.0 | 2.6 | 0.00 | 0.00 | 0.00 | 50 | 914.4 |
| 20260505093833 | 55 | 95 | 0.0 | 1.7 | 0.00 | 0.00 | 0.00 | 49 | 914.5 |
| 20260505093730 | 55 | 95 | 0.0 | 1.7 | 0.00 | 0.00 | 0.00 | 48 | 914.4 |
| 20260505093624 | 55 | 115 | 0.0 | 0.9 | 0.00 | 0.00 | 0.00 | 48 | 914.4 |
| 20260505093520 | 55 | 115 | 0.0 | 0.9 | 0.00 | 0.00 | 0.00 | 48 | 914.4 |
| 20260505093415 | 55 | 113 | 0.0 | 3.5 | 0.00 | 0.00 | 0.00 | 48 | 914.4 |
| 20260505093311 | 55 | 113 | 0.0 | 3.5 | 0.00 | 0.00 | 0.00 | 48 | 914.4 |
| 20260505093205 | 55 | 111 | 0.0 | 3.5 | 0.00 | 0.00 | 0.00 | 48 | 914.4 |
| 20260505093058 | 55 | 108 | 0.0 | 3.5 | 0.00 | 0.00 | 0.00 | 48 | 914.4 |
| 20260505092951 | 55 | 108 | 0.0 | 3.5 | 0.00 | 0.00 | 0.00 | 48 | 914.4 |
| 20260505092846 | 55 | 92 | 0.0 | 3.5 | 0.00 | 0.00 | 0.00 | 48 | 914.4 |
| 20260505092740 | 55 | 88 | 0.9 | 3.5 | 0.00 | 0.00 | 0.00 | 48 | 914.4 |
| 20260505092414 | 55 | 91 | 0.9 | 3.5 | 0.00 | 0.00 | 0.00 | 47 | 914.4 |
| 20260505092313 | 55 | 89 | 0.9 | 3.5 | 0.00 | 0.00 | 0.00 | 47 | 914.4 |
| 20260505092206 | 54 | 86 | 0.9 | 3.5 | 0.00 | 0.00 | 0.00 | 47 | 914.4 |
| 20260505092059 | 54 | 89 | 0.9 | 3.5 | 0.00 | 0.00 | 0.00 | 47 | 914.4 |
| 20260505091956 | 54 | 75 | 0.9 | 3.5 | 0.00 | 0.00 | 0.00 | 47 | 914.5 |
| 20260505091854 | 54 | 58 | 0.9 | 3.5 | 0.00 | 0.00 | 0.00 | 47 | 914.4 |
| 20260505091746 | 54 | 74 | 0.9 | 3.5 | 0.00 | 0.00 | 0.00 | 47 | 914.4 |
| 20260505091644 | 54 | 80 | 0.9 | 3.5 | 0.00 | 0.00 | 0.00 | 48 | 914.4 |
| 20260505091540 | 54 | 68 | 0.9 | 3.5 | 0.00 | 0.00 | 0.00 | 48 | 914.4 |
| 20260505091435 | 54 | 78 | 0.9 | 2.6 | 0.00 | 0.00 | 0.00 | 47 | 914.4 |
| 20260505091109 | 55 | 83 | 0.9 | 1.7 | 0.00 | 0.00 | 0.00 | 47 | 914.4 |
| 20260505091001 | 55 | 80 | 0.0 | 1.7 | 0.00 | 0.00 | 0.00 | 47 | 914.5 |
| 20260505090859 | 55 | 83 | 0.0 | 1.7 | 0.00 | 0.00 | 0.00 | 47 | 914.5 |
| 20260505090754 | 55 | 80 | 0.0 | 1.7 | 0.00 | 0.00 | 0.00 | 46 | 914.5 |
| 20260505090648 | 55 | 88 | 0.0 | 1.7 | 0.00 | 0.00 | 0.00 | 46 | 914.6 |
| 20260505090541 | 55 | 71 | 0.0 | 1.7 | 0.00 | 0.00 | 0.00 | 46 | 914.6 |
| 20260505090211 | 55 | 95 | 0.0 | 0.0 | 0.00 | 0.00 | 0.00 | 46 | 914.6 |
| 20260505090104 | 55 | 96 | 0.0 | 0.0 | 0.00 | 0.00 | 0.00 | 46 | 914.5 |
| 20260505090001 | 55 | 96 | 0.0 | 0.0 | 0.00 | 0.00 | 0.00 | 46 | 914.6 |
| 20260505085858 | 55 | 128 | 0.0 | 0.0 | 0.00 | 0.00 | 0.00 | 46 | 914.5 |
| 20260505085317 | 55 | 128 | 0.0 | 2.6 | 0.00 | 0.00 | 0.00 | 46 | 914.6 |
| 20260505085212 | 55 | 128 | 0.0 | 2.6 | 0.00 | 0.00 | 0.00 | 46 | 914.5 |
| 20260505085106 | 55 | 130 | 0.0 | 2.6 | 0.00 | 0.00 | 0.00 | 46 | 914.5 |
| 20260505085002 | 55 | 130 | 0.9 | 2.6 | 0.00 | 0.00 | 0.00 | 46 | 914.5 |
| 20260505084858 | 55 | 130 | 0.9 | 2.6 | 0.00 | 0.00 | 0.00 | 46 | 914.6 |
| 20260505084753 | 55 | 142 | 0.9 | 2.6 | 0.00 | 0.00 | 0.00 | 46 | 914.5 |
| 20260505084646 | 55 | 143 | 0.9 | 2.6 | 0.00 | 0.00 | 0.00 | 46 | 914.5 |
| 20260505084540 | 55 | 142 | 0.9 | 2.6 | 0.00 | 0.00 | 0.00 | 46 | 914.5 |
| 20260505084435 | 55 | 140 | 0.9 | 2.6 | 0.00 | 0.00 | 0.00 | 46 | 914.5 |
| 20260505084333 | 55 | 140 | 0.9 | 2.6 | 0.00 | 0.00 | 0.00 | 46 | 914.6 |
| 20260505084231 | 55 | 142 | 0.9 | 2.6 | 0.00 | 0.00 | 0.00 | 46 | 914.5 |
| 20260505083906 | 55 | 148 | 0.9 | 2.6 | 0.00 | 0.00 | 0.00 | 46 | 914.6 |
| 20260505083800 | 55 | 145 | 0.9 | 2.6 | 0.00 | 0.00 | 0.00 | 46 | 914.6 |
| 20260505083214 | 55 | 144 | 0.0 | 2.6 | 0.00 | 0.00 | 0.00 | 45 | 914.6 |
| 20260505083108 | 55 | 144 | 0.0 | 2.6 | 0.00 | 0.00 | 0.00 | 45 | 914.7 |
| 20260505082959 | 55 | 144 | 0.0 | 2.6 | 0.00 | 0.00 | 0.00 | 45 | 914.7 |
| 20260505082855 | 55 | 134 | 0.0 | 0.9 | 0.00 | 0.00 | 0.00 | 45 | 914.7 |
| 20260505082748 | 55 | 119 | 0.0 | 0.9 | 0.00 | 0.00 | 0.00 | 45 | 914.7 |
| 20260505082425 | 55 | 106 | 0.0 | 0.0 | 0.00 | 0.00 | 0.00 | 44 | 914.7 |
| 20260505082323 | 55 | 106 | 0.0 | 0.0 | 0.00 | 0.00 | 0.00 | 44 | 914.7 |
| 20260505082220 | 55 | 106 | 0.0 | 0.0 | 0.00 | 0.00 | 0.00 | 44 | 914.7 |
| 20260505081859 | 55 | 107 | 0.0 | 0.0 | 0.00 | 0.00 | 0.00 | 44 | 914.8 |
| 20260505081751 | 55 | 107 | 0.0 | 0.9 | 0.00 | 0.00 | 0.00 | 44 | 914.8 |
| 20260505081649 | 55 | 117 | 0.0 | 0.0 | 0.00 | 0.00 | 0.00 | 44 | 914.8 |
| 20260505081325 | 55 | 142 | 0.0 | 0.0 | 0.00 | 0.00 | 0.00 | 44 | 914.9 |
| 20260505081223 | 55 | 142 | 0.0 | 2.6 | 0.00 | 0.00 | 0.00 | 44 | 914.9 |
| 20260505081119 | 55 | 142 | 0.0 | 2.6 | 0.00 | 0.00 | 0.00 | 44 | 914.9 |
| 20260505081013 | 55 | 142 | 0.0 | 2.6 | 0.00 | 0.00 | 0.00 | 44 | 915.0 |
| 20260505080645 | 56 | 67 | 0.0 | 1.7 | 0.00 | 0.00 | 0.00 | 44 | 914.9 |
| 20260505080538 | 56 | 67 | 0.0 | 1.7 | 0.00 | 0.00 | 0.00 | 44 | 914.9 |
| 20260505080435 | 56 | 73 | 0.0 | 1.7 | 0.00 | 0.00 | 0.00 | 44 | 914.9 |
| 20260505080333 | 56 | 63 | 0.0 | 1.7 | 0.00 | 0.00 | 0.00 | 44 | 914.9 |
| 20260505080226 | 56 | 69 | 0.0 | 1.7 | 0.00 | 0.00 | 0.00 | 44 | 915.0 |
| 20260505080121 | 56 | 69 | 0.0 | 1.7 | 0.00 | 0.00 | 0.00 | 44 | 915.0 |
| 20260505075753 | 56 | 74 | 0.0 | 1.7 | 0.00 | 0.00 | 0.00 | 44 | 915.1 |
| 20260505075646 | 56 | 73 | 0.0 | 1.7 | 0.00 | 0.00 | 0.00 | 44 | 915.1 |
| 20260505075539 | 56 | 73 | 0.0 | 1.7 | 0.00 | 0.00 | 0.00 | 44 | 915.1 |
| 20260505075432 | 56 | 69 | 0.0 | 1.7 | 0.00 | 0.00 | 0.00 | 44 | 915.0 |
| 20260505075326 | 56 | 66 | 0.0 | 1.7 | 0.00 | 0.00 | 0.00 | 44 | 915.0 |
| 20260505075223 | 56 | 65 | 0.0 | 0.9 | 0.00 | 0.00 | 0.00 | 44 | 915.1 |
| 20260505075116 | 56 | 65 | 0.0 | 0.9 | 0.00 | 0.00 | 0.00 | 44 | 915.1 |
| 20260505075009 | 56 | 65 | 0.0 | 0.0 | 0.00 | 0.00 | 0.00 | 43 | 915.0 |
| 20260505074645 | 56 | 65 | 0.0 | 0.0 | 0.00 | 0.00 | 0.00 | 43 | 915.1 |
| 20260505074542 | 56 | 65 | 0.0 | 0.0 | 0.00 | 0.00 | 0.00 | 43 | 915.1 |
| 20260505074215 | 56 | 65 | 0.0 | 0.0 | 0.00 | 0.00 | 0.00 | 43 | 915.1 |
| 20260505074113 | 56 | 65 | 0.0 | 2.6 | 0.00 | 0.00 | 0.00 | 43 | 915.1 |
| 20260505074009 | 56 | 65 | 0.0 | 2.6 | 0.00 | 0.00 | 0.00 | 43 | 915.1 |
| 20260505073905 | 56 | 65 | 0.0 | 2.6 | 0.00 | 0.00 | 0.00 | 43 | 915.2 |
| 20260505073758 | 57 | 65 | 0.0 | 2.6 | 0.00 | 0.00 | 0.00 | 43 | 915.1 |
| 20260505073656 | 57 | 65 | 0.0 | 2.6 | 0.00 | 0.00 | 0.00 | 43 | 915.1 |
| 20260505073553 | 57 | 65 | 0.0 | 2.6 | 0.00 | 0.00 | 0.00 | 43 | 915.1 |
| 20260505073450 | 57 | 65 | 0.0 | 2.6 | 0.00 | 0.00 | 0.00 | 42 | 915.1 |
| 20260505073126 | 57 | 65 | 0.9 | 2.6 | 0.00 | 0.00 | 0.00 | 42 | 915.2 |
| 20260505073022 | 57 | 65 | 0.9 | 2.6 | 0.00 | 0.00 | 0.00 | 42 | 915.2 |
| 20260505072920 | 57 | 64 | 0.9 | 2.6 | 0.00 | 0.00 | 0.00 | 42 | 915.3 |
| 20260505072553 | 57 | 68 | 0.0 | 2.6 | 0.00 | 0.00 | 0.00 | 41 | 915.3 |
| 20260505072231 | 57 | 53 | 0.0 | 2.6 | 0.00 | 0.00 | 0.00 | 41 | 915.2 |
| 20260505071652 | 57 | 74 | 0.0 | 0.9 | 0.00 | 0.00 | 0.00 | 41 | 915.2 |
| 20260505071545 | 57 | 150 | 0.0 | 0.0 | 0.00 | 0.00 | 0.00 | 41 | 915.2 |
| 20260505071439 | 57 | 150 | 0.0 | 0.0 | 0.00 | 0.00 | 0.00 | 41 | 915.2 |
| 20260505071337 | 58 | 150 | 0.0 | 0.9 | 0.00 | 0.00 | 0.00 | 41 | 915.3 |
| 20260505071233 | 58 | 150 | 0.0 | 0.9 | 0.00 | 0.00 | 0.00 | 41 | 915.3 |
| 20260505071128 | 58 | 148 | 0.0 | 0.9 | 0.00 | 0.00 | 0.00 | 41 | 915.3 |
| 20260505071023 | 58 | 150 | 0.0 | 0.0 | 0.00 | 0.00 | 0.00 | 41 | 915.3 |
| 20260505070916 | 58 | 150 | 0.0 | 0.0 | 0.00 | 0.00 | 0.00 | 41 | 915.4 |
| 20260505070809 | 58 | 150 | 0.9 | 4.3 | 0.00 | 0.00 | 0.00 | 41 | 915.4 |
| 20260505070702 | 58 | 150 | 0.9 | 4.3 | 0.00 | 0.00 | 0.00 | 41 | 915.4 |
| 20260505070338 | 58 | 150 | 0.9 | 4.3 | 0.00 | 0.00 | 0.00 | 41 | 915.3 |
| 20260505070234 | 58 | 150 | 0.9 | 4.3 | 0.00 | 0.00 | 0.00 | 41 | 915.3 |
| 20260505065650 | 58 | 155 | 0.0 | 2.6 | 0.00 | 0.00 | 0.00 | 40 | 915.3 |
| 20260505065545 | 58 | 156 | 0.9 | 2.6 | 0.00 | 0.00 | 0.00 | 40 | 915.3 |
| 20260505065440 | 58 | 142 | 0.9 | 2.6 | 0.00 | 0.00 | 0.00 | 40 | 915.3 |
| 20260505065119 | 58 | 139 | 0.0 | 2.6 | 0.00 | 0.00 | 0.00 | 40 | 915.3 |
| 20260505065012 | 58 | 149 | 0.0 | 2.6 | 0.00 | 0.00 | 0.00 | 41 | 915.3 |
| 20260505064908 | 58 | 149 | 0.9 | 2.6 | 0.00 | 0.00 | 0.00 | 41 | 915.3 |
| 20260505064805 | 58 | 139 | 0.9 | 2.6 | 0.00 | 0.00 | 0.00 | 41 | 915.3 |
| 20260505064701 | 58 | 139 | 0.0 | 2.6 | 0.00 | 0.00 | 0.00 | 41 | 915.3 |
| 20260505064557 | 58 | 146 | 0.0 | 2.6 | 0.00 | 0.00 | 0.00 | 41 | 915.2 |
| 20260505064451 | 58 | 141 | 0.0 | 2.6 | 0.00 | 0.00 | 0.00 | 41 | 915.3 |
| 20260505064344 | 58 | 159 | 0.0 | 2.6 | 0.00 | 0.00 | 0.00 | 41 | 915.3 |
| 20260505064237 | 58 | 145 | 0.0 | 2.6 | 0.00 | 0.00 | 0.00 | 41 | 915.3 |
| 20260505063912 | 58 | 146 | 0.0 | 1.7 | 0.00 | 0.00 | 0.00 | 41 | 915.3 |
| 20260505063808 | 58 | 153 | 0.0 | 0.9 | 0.00 | 0.00 | 0.00 | 41 | 915.3 |
| 20260505063704 | 58 | 154 | 0.0 | 0.0 | 0.00 | 0.00 | 0.00 | 41 | 915.3 |
| 20260505063559 | 58 | 154 | 0.0 | 0.0 | 0.00 | 0.00 | 0.00 | 41 | 915.3 |
| 20260505063455 | 58 | 154 | 0.0 | 0.0 | 0.00 | 0.00 | 0.00 | 41 | 915.3 |
| 20260505063349 | 58 | 154 | 0.0 | 0.0 | 0.00 | 0.00 | 0.00 | 41 | 915.3 |
| 20260505063243 | 58 | 154 | 0.0 | 0.0 | 0.00 | 0.00 | 0.00 | 41 | 915.3 |
| 20260505063139 | 58 | 154 | 0.0 | 2.6 | 0.00 | 0.00 | 0.00 | 41 | 915.3 |
| 20260505063033 | 58 | 154 | 0.0 | 2.6 | 0.00 | 0.00 | 0.00 | 41 | 915.3 |
| 20260505062927 | 58 | 154 | 0.0 | 2.6 | 0.00 | 0.00 | 0.00 | 41 | 915.3 |
| 20260505062606 | 58 | 103 | 0.0 | 2.6 | 0.00 | 0.00 | 0.00 | 41 | 915.2 |
| 20260505062023 | 59 | 128 | 0.9 | 2.6 | 0.00 | 0.00 | 0.00 | 41 | 915.2 |
| 20260505061918 | 59 | 146 | 0.9 | 2.6 | 0.00 | 0.00 | 0.00 | 41 | 915.2 |
| 20260505061811 | 59 | 147 | 0.9 | 2.6 | 0.00 | 0.00 | 0.00 | 41 | 915.2 |
| 20260505061705 | 59 | 148 | 0.0 | 2.6 | 0.00 | 0.00 | 0.00 | 41 | 915.2 |
| 20260505061558 | 59 | 98 | 0.0 | 3.5 | 0.00 | 0.00 | 0.00 | 41 | 915.1 |
| 20260505061454 | 59 | 139 | 0.0 | 3.5 | 0.00 | 0.00 | 0.00 | 41 | 915.1 |
| 20260505061131 | 59 | 146 | 0.0 | 3.5 | 0.00 | 0.00 | 0.00 | 41 | 915.1 |
| 20260505060809 | 59 | 110 | 0.0 | 3.5 | 0.00 | 0.00 | 0.00 | 41 | 915.1 |
| 20260505060702 | 59 | 110 | 0.0 | 3.5 | 0.00 | 0.00 | 0.00 | 41 | 915.1 |
| 20260505060556 | 59 | 110 | 0.0 | 3.5 | 0.00 | 0.00 | 0.00 | 41 | 915.1 |
| 20260505060453 | 59 | 110 | 0.0 | 3.5 | 0.00 | 0.00 | 0.00 | 40 | 915.1 |
| 20260505060349 | 59 | 110 | 0.0 | 3.5 | 0.00 | 0.00 | 0.00 | 40 | 915.0 |
| 20260505060241 | 59 | 116 | 0.0 | 3.5 | 0.00 | 0.00 | 0.00 | 40 | 915.1 |
| 20260505060135 | 59 | 116 | 0.0 | 3.5 | 0.00 | 0.00 | 0.00 | 40 | 915.0 |
| 20260505060032 | 59 | 116 | 0.0 | 3.5 | 0.00 | 0.00 | 0.00 | 40 | 915.0 |
| 20260505055227 | 60 | 91 | 0.0 | 2.6 | 0.00 | 0.00 | 0.00 | 39 | 915.1 |
| 20260505055120 | 60 | 91 | 0.0 | 2.6 | 0.00 | 0.00 | 0.00 | 39 | 915.1 |
| 20260505055018 | 60 | 86 | 0.0 | 2.6 | 0.00 | 0.00 | 0.00 | 39 | 915.1 |
| 20260505054914 | 60 | 84 | 0.0 | 2.6 | 0.00 | 0.00 | 0.00 | 38 | 915.1 |
| 20260505054807 | 60 | 82 | 0.0 | 2.6 | 0.00 | 0.00 | 0.00 | 38 | 915.1 |
| 20260505054701 | 60 | 90 | 0.0 | 2.6 | 0.00 | 0.00 | 0.00 | 38 | 915.2 |
| 20260505054555 | 60 | 71 | 0.0 | 2.6 | 0.00 | 0.00 | 0.00 | 38 | 915.2 |
| 20260505054452 | 60 | 66 | 0.0 | 2.6 | 0.00 | 0.00 | 0.00 | 38 | 915.2 |
| 20260505054349 | 60 | 70 | 0.0 | 0.0 | 0.00 | 0.00 | 0.00 | 38 | 915.2 |
| 20260505054025 | 60 | 69 | 0.0 | 4.3 | 0.00 | 0.00 | 0.00 | 38 | 915.1 |
| 20260505053919 | 60 | 67 | 0.0 | 4.3 | 0.00 | 0.00 | 0.00 | 38 | 915.2 |
| 20260505053816 | 60 | 83 | 0.0 | 4.3 | 0.00 | 0.00 | 0.00 | 38 | 915.2 |
| 20260505053711 | 60 | 83 | 0.0 | 4.3 | 0.00 | 0.00 | 0.00 | 38 | 915.2 |
| 20260505053608 | 60 | 87 | 0.0 | 4.3 | 0.00 | 0.00 | 0.00 | 38 | 915.2 |
| 20260505053505 | 60 | 80 | 0.0 | 4.3 | 0.00 | 0.00 | 0.00 | 38 | 915.2 |
| 20260505053358 | 60 | 81 | 0.0 | 4.3 | 0.00 | 0.00 | 0.00 | 38 | 915.1 |
| 20260505053257 | 60 | 101 | 0.0 | 2.6 | 0.00 | 0.00 | 0.00 | 37 | 915.1 |
| 20260505053153 | 60 | 74 | 0.0 | 2.6 | 0.00 | 0.00 | 0.00 | 37 | 915.1 |
| 20260505053051 | 60 | 77 | 0.0 | 2.6 | 0.00 | 0.00 | 0.00 | 37 | 915.1 |
| 20260505052944 | 60 | 88 | 0.0 | 2.6 | 0.00 | 0.00 | 0.00 | 37 | 915.1 |
| 20260505052618 | 61 | 134 | 0.0 | 0.0 | 0.00 | 0.00 | 0.00 | 37 | 915.0 |
| 20260505052512 | 61 | 134 | 0.0 | 0.0 | 0.00 | 0.00 | 0.00 | 37 | 915.1 |
| 20260505052408 | 61 | 140 | 0.0 | 0.0 | 0.00 | 0.00 | 0.00 | 37 | 915.0 |
| 20260505052305 | 61 | 140 | 0.0 | 0.0 | 0.00 | 0.00 | 0.00 | 37 | 915.0 |
| 20260505052200 | 61 | 140 | 0.0 | 3.5 | 0.00 | 0.00 | 0.00 | 37 | 915.0 |
| 20260505052054 | 61 | 140 | 0.0 | 3.5 | 0.00 | 0.00 | 0.00 | 37 | 915.0 |
| 20260505051949 | 61 | 140 | 0.0 | 3.5 | 0.00 | 0.00 | 0.00 | 37 | 915.0 |
| 20260505051841 | 61 | 140 | 0.0 | 3.5 | 0.00 | 0.00 | 0.00 | 37 | 915.0 |
| 20260505051517 | 61 | 157 | 0.0 | 2.6 | 0.00 | 0.00 | 0.00 | 37 | 914.9 |
| 20260505051411 | 61 | 154 | 0.0 | 2.6 | 0.00 | 0.00 | 0.00 | 37 | 914.9 |
| 20260505051303 | 61 | 142 | 0.9 | 4.3 | 0.00 | 0.00 | 0.00 | 37 | 914.9 |
| 20260505051159 | 61 | 142 | 0.9 | 4.3 | 0.00 | 0.00 | 0.00 | 37 | 914.9 |
| 20260505051056 | 61 | 142 | 0.9 | 4.3 | 0.00 | 0.00 | 0.00 | 37 | 914.9 |
| 20260505050952 | 61 | 142 | 0.9 | 4.3 | 0.00 | 0.00 | 0.00 | 37 | 914.9 |
| 20260505050845 | 61 | 165 | 0.9 | 4.3 | 0.00 | 0.00 | 0.00 | 36 | 914.9 |
| 20260505050738 | 61 | 163 | 1.7 | 4.3 | 0.00 | 0.00 | 0.00 | 36 | 914.9 |
| 20260505050635 | 61 | 153 | 1.7 | 4.3 | 0.00 | 0.00 | 0.00 | 36 | 914.9 |
| 20260505050528 | 61 | 150 | 1.7 | 4.3 | 0.00 | 0.00 | 0.00 | 36 | 914.8 |
| 20260505050426 | 61 | 164 | 1.7 | 4.3 | 0.00 | 0.00 | 0.00 | 36 | 914.8 |
| 20260505050319 | 61 | 175 | 1.7 | 4.3 | 0.00 | 0.00 | 0.00 | 36 | 914.8 |
| 20260505050212 | 61 | 152 | 1.7 | 4.3 | 0.00 | 0.00 | 0.00 | 36 | 914.8 |
| 20260505050110 | 61 | 150 | 1.7 | 4.3 | 0.00 | 0.00 | 0.00 | 36 | 914.8 |
| 20260505041707 | 63 | 165 | 2.6 | 10.4 | 0.00 | 0.00 | 0.00 | 33 | 914.4 |
| 20260505041603 | 63 | 182 | 2.6 | 10.4 | 0.00 | 0.00 | 0.00 | 33 | 914.4 |
| 20260505041501 | 63 | 155 | 2.6 | 10.4 | 0.00 | 0.00 | 0.00 | 33 | 914.4 |
| 20260505041352 | 63 | 184 | 2.6 | 10.4 | 0.00 | 0.00 | 0.00 | 33 | 914.4 |
| 20260505041025 | 63 | 174 | 3.5 | 10.4 | 0.00 | 0.00 | 0.00 | 33 | 914.4 |
| 20260505040923 | 63 | 191 | 2.6 | 10.4 | 0.00 | 0.00 | 0.00 | 33 | 914.3 |
| 20260505040820 | 63 | 179 | 2.6 | 10.4 | 0.00 | 0.00 | 0.00 | 33 | 914.2 |
| 20260505040714 | 63 | 162 | 2.6 | 10.4 | 0.00 | 0.00 | 0.00 | 33 | 914.3 |
| 20260505040348 | 63 | 185 | 2.6 | 10.4 | 0.00 | 0.00 | 0.00 | 33 | 914.2 |
| 20260505040242 | 63 | 162 | 2.6 | 10.4 | 0.00 | 0.00 | 0.00 | 33 | 914.2 |
| 20260505040136 | 63 | 222 | 1.7 | 10.4 | 0.00 | 0.00 | 0.00 | 33 | 914.1 |
| 20260505040030 | 63 | 162 | 1.7 | 8.7 | 0.00 | 0.00 | 0.00 | 33 | 914.1 |
| 20260505035926 | 63 | 169 | 2.6 | 8.7 | 0.00 | 0.00 | 0.00 | 33 | 914.1 |
| 20260505035822 | 63 | 167 | 2.6 | 8.7 | 0.00 | 0.00 | 0.00 | 32 | 914.1 |
| 20260505035718 | 63 | 180 | 2.6 | 8.7 | 0.00 | 0.00 | 0.00 | 32 | 914.0 |
| 20260505035614 | 63 | 193 | 2.6 | 8.7 | 0.00 | 0.00 | 0.00 | 32 | 914.0 |
| 20260505035509 | 63 | 179 | 2.6 | 8.7 | 0.00 | 0.00 | 0.00 | 32 | 914.0 |
| 20260505035141 | 63 | 163 | 2.6 | 8.7 | 0.00 | 0.00 | 0.00 | 32 | 913.9 |
| 20260505035037 | 63 | 185 | 2.6 | 8.7 | 0.00 | 0.00 | 0.00 | 32 | 914.0 |
| 20260505034713 | 63 | 186 | 2.6 | 8.7 | 0.00 | 0.00 | 0.00 | 32 | 913.9 |
| 20260505034606 | 64 | 161 | 2.6 | 8.7 | 0.00 | 0.00 | 0.00 | 32 | 913.9 |
| 20260505034505 | 64 | 188 | 2.6 | 8.7 | 0.00 | 0.00 | 0.00 | 32 | 913.9 |
| 20260505034357 | 64 | 165 | 2.6 | 8.7 | 0.00 | 0.00 | 0.00 | 32 | 913.8 |
| 20260505034029 | 64 | 184 | 2.6 | 8.7 | 0.00 | 0.00 | 0.00 | 31 | 913.8 |
| 20260505033707 | 64 | 209 | 3.5 | 8.7 | 0.00 | 0.00 | 0.00 | 31 | 913.8 |
| 20260505033601 | 64 | 169 | 3.5 | 8.7 | 0.00 | 0.00 | 0.00 | 31 | 913.7 |
| 20260505033240 | 64 | 184 | 3.5 | 8.7 | 0.00 | 0.00 | 0.00 | 31 | 913.7 |
| 20260505033133 | 64 | 200 | 3.5 | 8.7 | 0.00 | 0.00 | 0.00 | 31 | 913.7 |
| 20260505033027 | 64 | 183 | 3.5 | 8.7 | 0.00 | 0.00 | 0.00 | 30 | 913.7 |
| 20260505032924 | 64 | 198 | 3.5 | 8.7 | 0.00 | 0.00 | 0.00 | 30 | 913.6 |
| 20260505032819 | 64 | 169 | 3.5 | 8.7 | 0.00 | 0.00 | 0.00 | 31 | 913.6 |
| 20260505032716 | 64 | 211 | 3.5 | 8.7 | 0.00 | 0.00 | 0.00 | 31 | 913.6 |
| 20260505032611 | 64 | 202 | 3.5 | 7.8 | 0.00 | 0.00 | 0.00 | 30 | 913.6 |
| 20260505032508 | 64 | 182 | 3.5 | 7.8 | 0.00 | 0.00 | 0.00 | 30 | 913.6 |
| 20260505032143 | 64 | 185 | 3.5 | 7.8 | 0.00 | 0.00 | 0.00 | 30 | 913.5 |
| 20260505031822 | 65 | 194 | 2.6 | 7.8 | 0.00 | 0.00 | 0.00 | 30 | 913.5 |
| 20260505031719 | 65 | 205 | 2.6 | 7.0 | 0.00 | 0.00 | 0.00 | 30 | 913.5 |
| 20260505031614 | 65 | 218 | 2.6 | 7.0 | 0.00 | 0.00 | 0.00 | 30 | 913.4 |
| 20260505031509 | 65 | 181 | 2.6 | 7.0 | 0.00 | 0.00 | 0.00 | 30 | 913.4 |
| 20260505031404 | 65 | 235 | 2.6 | 7.0 | 0.00 | 0.00 | 0.00 | 30 | 913.4 |
| 20260505031302 | 65 | 167 | 2.6 | 7.0 | 0.00 | 0.00 | 0.00 | 30 | 913.3 |
| 20260505031157 | 65 | 197 | 2.6 | 8.7 | 0.00 | 0.00 | 0.00 | 30 | 913.3 |
| 20260505031051 | 65 | 180 | 2.6 | 8.7 | 0.00 | 0.00 | 0.00 | 29 | 913.3 |
| 20260505030947 | 65 | 180 | 2.6 | 8.7 | 0.00 | 0.00 | 0.00 | 29 | 913.3 |
| 20260505030843 | 65 | 235 | 2.6 | 8.7 | 0.00 | 0.00 | 0.00 | 29 | 913.3 |
| 20260505030737 | 65 | 188 | 2.6 | 8.7 | 0.00 | 0.00 | 0.00 | 29 | 913.3 |
| 20260505030631 | 65 | 209 | 2.6 | 8.7 | 0.00 | 0.00 | 0.00 | 29 | 913.3 |
| 20260505030529 | 65 | 192 | 2.6 | 8.7 | 0.00 | 0.00 | 0.00 | 29 | 913.3 |
| 20260505030425 | 65 | 188 | 2.6 | 8.7 | 0.00 | 0.00 | 0.00 | 29 | 913.3 |
| 20260505030320 | 65 | 178 | 2.6 | 8.7 | 0.00 | 0.00 | 0.00 | 29 | 913.3 |
| 20260505025739 | 65 | 195 | 2.6 | 8.7 | 0.00 | 0.00 | 0.00 | 29 | 913.2 |
| 20260505025633 | 65 | 196 | 2.6 | 8.7 | 0.00 | 0.00 | 0.00 | 29 | 913.2 |
| 20260505025526 | 65 | 175 | 2.6 | 8.7 | 0.00 | 0.00 | 0.00 | 29 | 913.2 |
| 20260505025422 | 66 | 167 | 2.6 | 8.7 | 0.00 | 0.00 | 0.00 | 29 | 913.2 |
| 20260505025100 | 66 | 207 | 2.6 | 6.1 | 0.00 | 0.00 | 0.00 | 29 | 913.1 |
| 20260505024957 | 66 | 207 | 2.6 | 6.1 | 0.00 | 0.00 | 0.00 | 29 | 913.1 |
| 20260505024851 | 66 | 200 | 2.6 | 6.1 | 0.00 | 0.00 | 0.00 | 29 | 913.1 |
| 20260505024745 | 66 | 190 | 2.6 | 6.1 | 0.00 | 0.00 | 0.00 | 29 | 913.1 |
| 20260505024640 | 66 | 182 | 2.6 | 6.1 | 0.00 | 0.00 | 0.00 | 29 | 913.1 |